Wetterdaten: Samstag, 26.09.2020
Datum Zeit Temp. Aussen Temp. o. S. Temp +5cm Feuchte Auss Luftdruck Regen Sonnenschein Regendauer Solar Windben Empfang
26.09.2020 00:00 10,1 C 8,3 C 8,9 C 94 % 995,1 hPa 0,0 l/m 0 min 2 min 0 W/m 22,5 km/h (4 Bft) 100,00 %
26.09.2020 00:02 10,1 C 8,3 C 8,9 C 94 % 995,1 hPa 0,0 l/m 0 min 2 min 0 W/m 16,1 km/h (3 Bft) 100,00 %
26.09.2020 00:04 10,1 C 8,3 C 8,9 C 95 % 995,1 hPa 0,2 l/m 0 min 2 min 0 W/m 29,0 km/h (5 Bft) 100,00 %
26.09.2020 00:08 10,1 C 8,3 C 8,9 C 95 % 995,0 hPa 0,0 l/m 0 min 4 min 0 W/m 32,2 km/h (5 Bft) 100,00 %
26.09.2020 00:10 10,1 C 8,9 C 8,9 C 95 % 995,1 hPa 0,2 l/m 0 min 2 min 0 W/m 32,2 km/h (5 Bft) 97,83 %
26.09.2020 00:12 10,1 C 8,9 C 8,9 C 95 % 995,0 hPa 0,0 l/m 0 min 2 min 0 W/m 22,5 km/h (4 Bft) 100,00 %
26.09.2020 00:14 10,1 C 8,9 C 8,9 C 95 % 995,0 hPa 0,0 l/m 0 min 2 min 0 W/m 19,3 km/h (3 Bft) 100,00 %
26.09.2020 00:16 10,1 C 8,9 C 8,9 C 95 % 995,0 hPa 0,0 l/m 0 min 2 min 0 W/m 19,3 km/h (3 Bft) 100,00 %
26.09.2020 00:18 10,1 C 8,9 C 8,9 C 95 % 994,9 hPa 0,2 l/m 0 min 2 min 0 W/m 19,3 km/h (3 Bft) 100,00 %
26.09.2020 00:20 10,1 C 8,9 C 8,9 C 95 % 994,8 hPa 0,0 l/m 0 min 2 min 0 W/m 19,3 km/h (3 Bft) 100,00 %
26.09.2020 00:22 10,1 C 8,9 C 8,9 C 95 % 994,8 hPa 0,0 l/m 0 min 2 min 0 W/m 25,7 km/h (4 Bft) 97,83 %
26.09.2020 00:24 10,1 C 8,9 C 8,9 C 95 % 994,7 hPa 0,0 l/m 0 min 2 min 0 W/m 12,9 km/h (3 Bft) 100,00 %
26.09.2020 00:26 10,1 C 8,9 C 8,9 C 95 % 994,7 hPa 0,2 l/m 0 min 2 min 0 W/m 16,1 km/h (3 Bft) 100,00 %
26.09.2020 00:28 10,1 C 8,9 C 8,9 C 95 % 994,6 hPa 0,0 l/m 0 min 2 min 0 W/m 19,3 km/h (3 Bft) 97,87 %
26.09.2020 00:30 10,1 C 8,9 C 8,9 C 95 % 994,6 hPa 0,0 l/m 0 min 2 min 0 W/m 25,7 km/h (4 Bft) 100,00 %
26.09.2020 00:32 10,1 C 8,9 C 8,9 C 95 % 994,6 hPa 0,0 l/m 0 min 2 min 0 W/m 29,0 km/h (5 Bft) 100,00 %
26.09.2020 00:34 10,1 C 8,9 C 8,9 C 95 % 994,6 hPa 0,2 l/m 0 min 0 min 0 W/m 12,9 km/h (3 Bft) 100,00 %
26.09.2020 00:36 10,1 C 8,9 C 8,9 C 96 % 994,5 hPa 0,0 l/m 0 min 0 min 0 W/m 22,5 km/h (4 Bft) 97,87 %
26.09.2020 00:38 10,1 C 8,9 C 8,9 C 96 % 994,5 hPa 0,0 l/m 0 min 0 min 0 W/m 12,9 km/h (3 Bft) 100,00 %
26.09.2020 00:40 10,1 C 8,9 C 8,9 C 96 % 994,5 hPa 0,0 l/m 0 min 0 min 0 W/m 41,8 km/h (6 Bft) 100,00 %
26.09.2020 00:42 10,1 C 8,9 C 8,9 C 96 % 994,5 hPa 0,0 l/m 0 min 0 min 0 W/m 25,7 km/h (4 Bft) 97,87 %
26.09.2020 00:44 10,1 C 8,9 C 8,9 C 96 % 994,4 hPa 0,0 l/m 0 min 0 min 0 W/m 19,3 km/h (3 Bft) 97,83 %
26.09.2020 00:46 10,1 C 8,9 C 8,9 C 96 % 994,5 hPa 0,2 l/m 0 min 0 min 0 W/m 32,2 km/h (5 Bft) 97,87 %
26.09.2020 00:48 10,1 C 8,9 C 8,9 C 96 % 994,3 hPa 0,0 l/m 0 min 0 min 0 W/m 25,7 km/h (4 Bft) 97,87 %
26.09.2020 00:50 10,1 C 8,9 C 8,9 C 96 % 994,4 hPa 0,0 l/m 0 min 0 min 0 W/m 16,1 km/h (3 Bft) 97,87 %
26.09.2020 00:52 10,1 C 8,9 C 8,9 C 96 % 994,2 hPa 0,0 l/m 0 min 0 min 0 W/m 38,6 km/h (5 Bft) 97,87 %
26.09.2020 00:54 10,1 C 8,9 C 8,9 C 96 % 994,2 hPa 0,0 l/m 0 min 0 min 0 W/m 25,7 km/h (4 Bft) 97,87 %
26.09.2020 00:56 10,1 C 8,9 C 8,9 C 96 % 994,2 hPa 0,0 l/m 0 min 0 min 0 W/m 19,3 km/h (3 Bft) 97,83 %
26.09.2020 00:58 10,1 C 8,9 C 8,9 C 96 % 994,2 hPa 0,0 l/m 0 min 0 min 0 W/m 29,0 km/h (5 Bft) 91,49 %
26.09.2020 01:00 10,1 C 8,9 C 8,9 C 96 % 994,3 hPa 0,0 l/m 0 min 0 min 0 W/m 22,5 km/h (4 Bft) 97,87 %
26.09.2020 01:02 10,1 C 8,9 C 8,9 C 96 % 994,3 hPa 0,0 l/m 0 min 0 min 0 W/m 25,7 km/h (4 Bft) 98,15 %
26.09.2020 01:04 10,1 C 8,9 C 8,9 C 96 % 994,2 hPa 0,0 l/m 0 min 0 min 0 W/m 22,5 km/h (4 Bft) 97,83 %
26.09.2020 01:06 10,1 C 8,9 C 8,9 C 96 % 994,2 hPa 0,0 l/m 0 min 0 min 0 W/m 25,7 km/h (4 Bft) 97,30 %
26.09.2020 01:08 10,1 C 8,9 C 8,9 C 96 % 994,2 hPa 0,0 l/m 0 min 0 min 0 W/m 22,5 km/h (4 Bft) 98,31 %
26.09.2020 01:10 10,1 C 8,9 C 8,9 C 96 % 994,2 hPa 0,0 l/m 0 min 0 min 0 W/m 22,5 km/h (4 Bft) 97,14 %
26.09.2020 01:12 10,1 C 8,9 C 8,9 C 96 % 994,1 hPa 0,0 l/m 0 min 0 min 0 W/m 25,7 km/h (4 Bft) 98,00 %
26.09.2020 01:14 10,1 C 8,9 C 8,9 C 96 % 994,2 hPa 0,0 l/m 0 min 0 min 0 W/m 29,0 km/h (5 Bft) 95,74 %
26.09.2020 01:16 10,0 C 8,9 C 8,9 C 96 % 994,2 hPa 0,0 l/m 0 min 0 min 0 W/m 29,0 km/h (5 Bft) 97,87 %
26.09.2020 01:18 10,0 C 8,9 C 8,9 C 96 % 994,2 hPa 0,2 l/m 0 min 0 min 0 W/m 22,5 km/h (4 Bft) 97,83 %
26.09.2020 01:20 10,0 C 8,9 C 8,9 C 96 % 994,2 hPa 0,0 l/m 0 min 0 min 0 W/m 22,5 km/h (4 Bft) 95,74 %
26.09.2020 01:22 10,0 C 8,9 C 8,9 C 96 % 994,2 hPa 0,0 l/m 0 min 0 min 0 W/m 22,5 km/h (4 Bft) 97,87 %
26.09.2020 01:24 10,0 C 8,9 C 8,9 C 96 % 994,3 hPa 0,0 l/m 0 min 0 min 0 W/m 22,5 km/h (4 Bft) 97,87 %
26.09.2020 01:26 10,0 C 8,9 C 8,9 C 97 % 994,2 hPa 0,0 l/m 0 min 0 min 0 W/m 16,1 km/h (3 Bft) 97,87 %
26.09.2020 01:28 10,0 C 8,9 C 8,9 C 97 % 994,3 hPa 0,0 l/m 0 min 0 min 0 W/m 25,7 km/h (4 Bft) 97,83 %
26.09.2020 01:30 10,0 C 8,9 C 8,9 C 97 % 994,2 hPa 0,0 l/m 0 min 0 min 0 W/m 29,0 km/h (5 Bft) 95,74 %
26.09.2020 01:32 10,0 C 8,9 C 8,9 C 97 % 994,2 hPa 0,0 l/m 0 min 0 min 0 W/m 25,7 km/h (4 Bft) 97,92 %
26.09.2020 01:34 10,0 C 8,9 C 8,9 C 97 % 994,3 hPa 0,0 l/m 0 min 0 min 0 W/m 19,3 km/h (3 Bft) 100,00 %
26.09.2020 01:36 10,0 C 8,9 C 8,3 C 97 % 994,3 hPa 0,0 l/m 0 min 0 min 0 W/m 29,0 km/h (5 Bft) 97,87 %
26.09.2020 01:38 10,0 C 8,9 C 8,3 C 97 % 994,3 hPa 0,0 l/m 0 min 0 min 0 W/m 12,9 km/h (3 Bft) 97,87 %
26.09.2020 01:40 10,0 C 8,9 C 8,9 C 97 % 994,3 hPa 0,0 l/m 0 min 0 min 0 W/m 22,5 km/h (4 Bft) 97,83 %
26.09.2020 01:42 9,9 C 8,9 C 8,9 C 97 % 994,4 hPa 0,0 l/m 0 min 0 min 0 W/m 22,5 km/h (4 Bft) 97,87 %
26.09.2020 01:44 9,9 C 8,9 C 8,9 C 97 % 994,3 hPa 0,0 l/m 0 min 2 min 0 W/m 22,5 km/h (4 Bft) 97,87 %
26.09.2020 01:46 9,9 C 8,9 C 8,9 C 97 % 994,3 hPa 0,0 l/m 0 min 2 min 0 W/m 19,3 km/h (3 Bft) 93,62 %
26.09.2020 01:48 9,9 C 8,9 C 8,9 C 97 % 994,2 hPa 0,0 l/m 0 min 0 min 0 W/m 22,5 km/h (4 Bft) 95,74 %
26.09.2020 01:50 9,9 C 8,9 C 8,9 C 97 % 994,3 hPa 0,0 l/m 0 min 2 min 0 W/m 16,1 km/h (3 Bft) 95,74 %
26.09.2020 01:52 9,9 C 8,9 C 8,3 C 97 % 994,3 hPa 0,0 l/m 0 min 0 min 0 W/m 16,1 km/h (3 Bft) 97,83 %
26.09.2020 01:54 9,9 C 8,9 C 8,3 C 97 % 994,1 hPa 0,0 l/m 0 min 0 min 0 W/m 25,7 km/h (4 Bft) 97,87 %
26.09.2020 01:56 9,9 C 8,9 C 8,3 C 97 % 994,2 hPa 0,0 l/m 0 min 0 min 0 W/m 22,5 km/h (4 Bft) 95,74 %
26.09.2020 01:58 9,9 C 8,9 C 8,3 C 97 % 994,2 hPa 0,0 l/m 0 min 0 min 0 W/m 19,3 km/h (3 Bft) 97,87 %
26.09.2020 02:00 9,9 C 8,9 C 8,3 C 97 % 994,1 hPa 0,0 l/m 0 min 2 min 0 W/m 16,1 km/h (3 Bft) 95,74 %
26.09.2020 02:02 9,9 C 8,9 C 8,3 C 97 % 994,1 hPa 0,0 l/m 0 min 0 min 0 W/m 19,3 km/h (3 Bft) 95,74 %
26.09.2020 02:04 9,9 C 8,9 C 8,3 C 97 % 994,0 hPa 0,0 l/m 0 min 0 min 0 W/m 12,9 km/h (3 Bft) 93,62 %
26.09.2020 02:06 9,9 C 8,9 C 8,3 C 97 % 994,0 hPa 0,0 l/m 0 min 0 min 0 W/m 19,3 km/h (3 Bft) 95,74 %
26.09.2020 02:08 9,9 C 8,3 C 8,3 C 97 % 994,1 hPa 0,0 l/m 0 min 0 min 0 W/m 29,0 km/h (5 Bft) 93,75 %
26.09.2020 02:10 9,9 C 8,3 C 8,3 C 97 % 994,0 hPa 0,0 l/m 0 min 0 min 0 W/m 19,3 km/h (3 Bft) 94,29 %
26.09.2020 02:12 9,9 C 8,3 C 8,3 C 97 % 994,0 hPa 0,0 l/m 0 min 0 min 0 W/m 35,4 km/h (5 Bft) 96,61 %
26.09.2020 02:14 9,8 C 8,3 C 8,3 C 97 % 994,0 hPa 0,0 l/m 0 min 0 min 0 W/m 25,7 km/h (4 Bft) 95,74 %
26.09.2020 02:16 9,8 C 8,3 C 8,3 C 97 % 994,0 hPa 0,0 l/m 0 min 2 min 0 W/m 19,3 km/h (3 Bft) 94,29 %
26.09.2020 02:18 9,8 C 8,3 C 8,3 C 97 % 994,0 hPa 0,0 l/m 0 min 2 min 0 W/m 35,4 km/h (5 Bft) 94,83 %
26.09.2020 02:20 9,8 C 8,3 C 8,3 C 97 % 994,0 hPa 0,0 l/m 0 min 0 min 0 W/m 22,5 km/h (4 Bft) 97,14 %
26.09.2020 02:22 9,8 C 8,3 C 8,3 C 97 % 994,0 hPa 0,0 l/m 0 min 0 min 0 W/m 25,7 km/h (4 Bft) 95,74 %
26.09.2020 02:24 9,8 C 8,3 C 8,3 C 97 % 994,0 hPa 0,0 l/m 0 min 0 min 0 W/m 25,7 km/h (4 Bft) 97,87 %
26.09.2020 02:26 9,8 C 8,3 C 8,3 C 97 % 993,9 hPa 0,2 l/m 0 min 0 min 0 W/m 19,3 km/h (3 Bft) 97,87 %
26.09.2020 02:28 9,8 C 8,3 C 8,3 C 97 % 993,9 hPa 0,0 l/m 0 min 0 min 0 W/m 22,5 km/h (4 Bft) 98,28 %
26.09.2020 02:30 9,8 C 8,3 C 8,3 C 97 % 993,8 hPa 0,0 l/m 0 min 0 min 0 W/m 22,5 km/h (4 Bft) 97,22 %
26.09.2020 02:32 9,8 C 8,3 C 8,3 C 97 % 993,8 hPa 0,0 l/m 0 min 0 min 0 W/m 19,3 km/h (3 Bft) 98,28 %
26.09.2020 02:34 9,7 C 8,3 C 8,3 C 97 % 993,8 hPa 0,0 l/m 0 min 0 min 0 W/m 19,3 km/h (3 Bft) 97,87 %
26.09.2020 02:36 9,7 C 8,3 C 8,3 C 97 % 993,8 hPa 0,0 l/m 0 min 0 min 0 W/m 6,4 km/h (2 Bft) 97,87 %
26.09.2020 02:38 9,7 C 8,3 C 8,3 C 97 % 993,7 hPa 0,0 l/m 0 min 0 min 0 W/m 32,2 km/h (5 Bft) 97,87 %
26.09.2020 02:40 9,7 C 8,3 C 8,3 C 97 % 993,7 hPa 0,0 l/m 0 min 2 min 0 W/m 48,3 km/h (6 Bft) 97,14 %
26.09.2020 02:42 9,7 C 8,3 C 8,3 C 97 % 993,7 hPa 0,0 l/m 0 min 0 min 0 W/m 16,1 km/h (3 Bft) 97,87 %
26.09.2020 02:44 9,7 C 8,3 C 8,3 C 97 % 993,8 hPa 0,0 l/m 0 min 0 min 0 W/m 16,1 km/h (3 Bft) 98,28 %
26.09.2020 02:46 9,7 C 8,3 C 8,3 C 97 % 993,8 hPa 0,0 l/m 0 min 0 min 0 W/m 12,9 km/h (3 Bft) 97,14 %
26.09.2020 02:48 9,7 C 8,3 C 8,3 C 97 % 993,8 hPa 0,0 l/m 0 min 0 min 0 W/m 16,1 km/h (3 Bft) 94,92 %
26.09.2020 02:50 9,7 C 8,3 C 8,3 C 97 % 993,6 hPa 0,0 l/m 0 min 0 min 0 W/m 19,3 km/h (3 Bft) 100,00 %
26.09.2020 02:52 9,7 C 8,3 C 8,3 C 97 % 993,5 hPa 0,0 l/m 0 min 0 min 0 W/m 19,3 km/h (3 Bft) 97,87 %
26.09.2020 02:54 9,7 C 8,3 C 8,3 C 97 % 993,5 hPa 0,0 l/m 0 min 2 min 0 W/m 16,1 km/h (3 Bft) 97,83 %
26.09.2020 02:56 9,7 C 8,3 C 8,3 C 97 % 993,6 hPa 0,0 l/m 0 min 2 min 0 W/m 25,7 km/h (4 Bft) 97,87 %
26.09.2020 02:58 9,6 C 8,3 C 8,3 C 97 % 993,5 hPa 0,0 l/m 0 min 0 min 0 W/m 12,9 km/h (3 Bft) 96,61 %
26.09.2020 03:00 9,6 C 8,3 C 8,3 C 97 % 993,5 hPa 0,0 l/m 0 min 0 min 0 W/m 19,3 km/h (3 Bft) 97,87 %
26.09.2020 03:02 9,6 C 8,3 C 8,3 C 97 % 993,6 hPa 0,0 l/m 0 min 0 min 0 W/m 12,9 km/h (3 Bft) 97,56 %
26.09.2020 03:04 9,6 C 8,3 C 8,3 C 97 % 993,5 hPa 0,0 l/m 0 min 2 min 0 W/m 19,3 km/h (3 Bft) 97,87 %
26.09.2020 03:06 9,6 C 8,3 C 8,3 C 97 % 993,6 hPa 0,0 l/m 0 min 0 min 0 W/m 16,1 km/h (3 Bft) 97,87 %
26.09.2020 03:08 9,6 C 8,3 C 8,3 C 97 % 993,6 hPa 0,0 l/m 0 min 0 min 0 W/m 19,3 km/h (3 Bft) 97,87 %
26.09.2020 03:10 9,6 C 8,3 C 8,3 C 97 % 993,6 hPa 0,0 l/m 0 min 0 min 0 W/m 22,5 km/h (4 Bft) 100,00 %
26.09.2020 03:12 9,6 C 8,3 C 8,3 C 97 % 993,6 hPa 0,0 l/m 0 min 0 min 0 W/m 16,1 km/h (3 Bft) 95,74 %
26.09.2020 03:14 9,6 C 8,3 C 8,3 C 97 % 993,7 hPa 0,0 l/m 0 min 0 min 0 W/m 6,4 km/h (2 Bft) 100,00 %
26.09.2020 03:16 9,6 C 8,3 C 8,3 C 97 % 993,7 hPa 0,0 l/m 0 min 0 min 0 W/m 32,2 km/h (5 Bft) 100,00 %
26.09.2020 03:18 9,6 C 8,3 C 8,3 C 97 % 993,6 hPa 0,0 l/m 0 min 2 min 0 W/m 19,3 km/h (3 Bft) 97,87 %
26.09.2020 03:20 9,6 C 8,3 C 8,3 C 97 % 993,6 hPa 0,0 l/m 0 min 0 min 0 W/m 19,3 km/h (3 Bft) 100,00 %
26.09.2020 03:22 9,6 C 8,3 C 8,3 C 97 % 993,6 hPa 0,0 l/m 0 min 0 min 0 W/m 22,5 km/h (4 Bft) 97,87 %
26.09.2020 03:24 9,6 C 8,3 C 8,3 C 97 % 993,5 hPa 0,0 l/m 0 min 2 min 0 W/m 19,3 km/h (3 Bft) 100,00 %
26.09.2020 03:26 9,6 C 8,3 C 8,3 C 97 % 993,5 hPa 0,0 l/m 0 min 2 min 0 W/m 19,3 km/h (3 Bft) 97,87 %
26.09.2020 03:28 9,6 C 8,3 C 8,3 C 97 % 993,4 hPa 0,0 l/m 0 min 0 min 0 W/m 12,9 km/h (3 Bft) 100,00 %
26.09.2020 03:30 9,6 C 8,3 C 8,3 C 97 % 993,4 hPa 0,0 l/m 0 min 0 min 0 W/m 6,4 km/h (2 Bft) 100,00 %
26.09.2020 03:32 9,6 C 8,3 C 8,3 C 97 % 993,3 hPa 0,0 l/m 0 min 0 min 0 W/m 19,3 km/h (3 Bft) 100,00 %
26.09.2020 03:34 9,6 C 8,3 C 8,3 C 97 % 993,4 hPa 0,0 l/m 0 min 0 min 0 W/m 19,3 km/h (3 Bft) 100,00 %
26.09.2020 03:36 9,6 C 8,3 C 8,3 C 97 % 993,4 hPa 0,0 l/m 0 min 2 min 0 W/m 19,3 km/h (3 Bft) 97,83 %
26.09.2020 03:38 9,6 C 8,3 C 8,3 C 97 % 993,4 hPa 0,0 l/m 0 min 0 min 0 W/m 19,3 km/h (3 Bft) 97,87 %
26.09.2020 03:40 9,6 C 8,3 C 8,3 C 97 % 993,3 hPa 0,0 l/m 0 min 0 min 0 W/m 32,2 km/h (5 Bft) 97,87 %
26.09.2020 03:42 9,6 C 8,3 C 8,3 C 97 % 993,3 hPa 0,0 l/m 0 min 0 min 0 W/m 19,3 km/h (3 Bft) 97,87 %
26.09.2020 03:44 9,6 C 8,3 C 8,3 C 97 % 993,3 hPa 0,0 l/m 0 min 0 min 0 W/m 16,1 km/h (3 Bft) 97,87 %
26.09.2020 03:46 9,6 C 8,3 C 8,3 C 97 % 993,3 hPa 0,0 l/m 0 min 0 min 0 W/m 25,7 km/h (4 Bft) 97,87 %
26.09.2020 03:48 9,6 C 8,3 C 8,3 C 97 % 993,3 hPa 0,0 l/m 0 min 0 min 0 W/m 19,3 km/h (3 Bft) 97,83 %
26.09.2020 03:50 9,6 C 8,3 C 8,3 C 97 % 993,3 hPa 0,0 l/m 0 min 0 min 0 W/m 12,9 km/h (3 Bft) 97,87 %
26.09.2020 03:52 9,6 C 8,3 C 8,3 C 97 % 993,3 hPa 0,0 l/m 0 min 0 min 0 W/m 12,9 km/h (3 Bft) 95,74 %
26.09.2020 03:54 9,6 C 8,3 C 8,3 C 97 % 993,2 hPa 0,0 l/m 0 min 2 min 0 W/m 12,9 km/h (3 Bft) 97,87 %
26.09.2020 03:56 9,6 C 8,3 C 8,3 C 97 % 993,2 hPa 0,0 l/m 0 min 2 min 0 W/m 16,1 km/h (3 Bft) 97,87 %
26.09.2020 03:58 9,6 C 8,3 C 8,3 C 97 % 993,2 hPa 0,2 l/m 0 min 0 min 0 W/m 25,7 km/h (4 Bft) 97,83 %
26.09.2020 04:00 9,6 C 8,3 C 8,3 C 97 % 993,1 hPa 0,0 l/m 0 min 0 min 0 W/m 3,2 km/h (1 Bft) 97,87 %
26.09.2020 04:02 9,6 C 8,3 C 8,3 C 97 % 993,1 hPa 0,0 l/m 0 min 0 min 0 W/m 12,9 km/h (3 Bft) 100,00 %
26.09.2020 04:04 9,6 C 8,3 C 8,3 C 97 % 993,2 hPa 0,0 l/m 0 min 0 min 0 W/m 12,9 km/h (3 Bft) 95,74 %
26.09.2020 04:06 9,7 C 8,3 C 8,3 C 97 % 993,2 hPa 0,0 l/m 0 min 0 min 0 W/m 19,3 km/h (3 Bft) 91,49 %
26.09.2020 04:08 9,7 C 8,3 C 8,3 C 97 % 993,2 hPa 0,0 l/m 0 min 0 min 0 W/m 12,9 km/h (3 Bft) 97,87 %
26.09.2020 04:10 9,7 C 8,3 C 8,3 C 97 % 993,2 hPa 0,0 l/m 0 min 0 min 0 W/m 3,2 km/h (1 Bft) 97,87 %
26.09.2020 04:12 9,7 C 8,3 C 8,3 C 97 % 993,2 hPa 0,0 l/m 0 min 0 min 0 W/m 6,4 km/h (2 Bft) 95,65 %
26.09.2020 04:14 9,7 C 8,9 C 8,3 C 97 % 993,1 hPa 0,0 l/m 0 min 0 min 0 W/m 3,2 km/h (1 Bft) 95,74 %
26.09.2020 04:16 9,7 C 8,9 C 8,3 C 97 % 993,1 hPa 0,0 l/m 0 min 0 min 0 W/m 6,4 km/h (2 Bft) 95,74 %
26.09.2020 04:18 9,7 C 8,9 C 8,3 C 97 % 993,1 hPa 0,0 l/m 0 min 0 min 0 W/m 16,1 km/h (3 Bft) 95,74 %
26.09.2020 04:20 9,7 C 8,9 C 8,3 C 98 % 993,1 hPa 0,0 l/m 0 min 2 min 0 W/m 16,1 km/h (3 Bft) 93,62 %
26.09.2020 04:22 9,7 C 8,9 C 8,3 C 98 % 993,0 hPa 0,0 l/m 0 min 2 min 0 W/m 12,9 km/h (3 Bft) 95,74 %
26.09.2020 04:24 9,7 C 8,9 C 8,9 C 98 % 993,1 hPa 0,0 l/m 0 min 0 min 0 W/m 12,9 km/h (3 Bft) 93,62 %
26.09.2020 04:26 9,7 C 8,9 C 8,9 C 98 % 993,1 hPa 0,0 l/m 0 min 0 min 0 W/m 3,2 km/h (1 Bft) 97,83 %
26.09.2020 04:28 9,7 C 8,9 C 8,9 C 98 % 993,1 hPa 0,0 l/m 0 min 0 min 0 W/m 12,9 km/h (3 Bft) 97,87 %
26.09.2020 04:30 9,7 C 8,9 C 8,9 C 98 % 993,0 hPa 0,0 l/m 0 min 0 min 0 W/m 0,0 km/h (0 Bft) 97,87 %
26.09.2020 04:32 9,7 C 8,9 C 8,9 C 98 % 993,0 hPa 0,0 l/m 0 min 0 min 0 W/m 0,0 km/h (0 Bft) 95,74 %
26.09.2020 04:34 9,7 C 8,9 C 8,9 C 98 % 993,0 hPa 0,0 l/m 0 min 0 min 0 W/m 12,9 km/h (3 Bft) 95,74 %
26.09.2020 04:36 9,8 C 8,9 C 8,9 C 98 % 993,0 hPa 0,0 l/m 0 min 0 min 0 W/m 12,9 km/h (3 Bft) 97,83 %
26.09.2020 04:38 9,8 C 8,9 C 8,9 C 98 % 993,1 hPa 0,0 l/m 0 min 0 min 0 W/m 12,9 km/h (3 Bft) 97,87 %
26.09.2020 04:40 9,8 C 8,9 C 8,9 C 98 % 993,1 hPa 0,0 l/m 0 min 0 min 0 W/m 6,4 km/h (2 Bft) 97,87 %
26.09.2020 04:42 9,8 C 8,9 C 8,9 C 98 % 993,1 hPa 0,0 l/m 0 min 0 min 0 W/m 6,4 km/h (2 Bft) 95,74 %
26.09.2020 04:44 9,8 C 8,9 C 8,9 C 98 % 993,1 hPa 0,0 l/m 0 min 0 min 0 W/m 16,1 km/h (3 Bft) 97,87 %
26.09.2020 04:46 9,8 C 8,9 C 8,9 C 98 % 993,1 hPa 0,0 l/m 0 min 0 min 0 W/m 3,2 km/h (1 Bft) 97,87 %
26.09.2020 04:48 9,8 C 8,9 C 8,9 C 98 % 993,1 hPa 0,0 l/m 0 min 0 min 0 W/m 16,1 km/h (3 Bft) 97,83 %
26.09.2020 04:50 9,8 C 8,9 C 8,9 C 98 % 993,1 hPa 0,0 l/m 0 min 0 min 0 W/m 16,1 km/h (3 Bft) 97,87 %
26.09.2020 04:52 9,8 C 8,9 C 8,9 C 98 % 993,0 hPa 0,0 l/m 0 min 0 min 0 W/m 0,0 km/h (0 Bft) 97,87 %
26.09.2020 04:54 9,8 C 8,9 C 8,9 C 98 % 993,1 hPa 0,0 l/m 0 min 0 min 0 W/m 19,3 km/h (3 Bft) 95,74 %
26.09.2020 04:56 9,9 C 8,9 C 8,9 C 98 % 993,1 hPa 0,0 l/m 0 min 0 min 0 W/m 6,4 km/h (2 Bft) 97,87 %
26.09.2020 04:58 9,9 C 8,9 C 8,9 C 98 % 993,1 hPa 0,0 l/m 0 min 0 min 0 W/m 6,4 km/h (2 Bft) 97,87 %
26.09.2020 05:00 9,9 C 8,9 C 8,9 C 98 % 993,1 hPa 0,0 l/m 0 min 0 min 0 W/m 3,2 km/h (1 Bft) 97,83 %
26.09.2020 05:02 9,9 C 8,9 C 8,9 C 98 % 993,0 hPa 0,0 l/m 0 min 0 min 0 W/m 12,9 km/h (3 Bft) 97,87 %
26.09.2020 05:04 9,9 C 8,9 C 8,9 C 98 % 993,1 hPa 0,0 l/m 0 min 0 min 0 W/m 16,1 km/h (3 Bft) 100,00 %
26.09.2020 05:06 9,9 C 8,9 C 8,9 C 98 % 993,1 hPa 0,0 l/m 0 min 0 min 0 W/m 9,7 km/h (2 Bft) 100,00 %
26.09.2020 05:08 9,9 C 8,9 C 8,9 C 98 % 993,1 hPa 0,2 l/m 0 min 0 min 0 W/m 12,9 km/h (3 Bft) 97,87 %
26.09.2020 05:10 10,0 C 8,9 C 8,9 C 98 % 993,1 hPa 0,0 l/m 0 min 0 min 0 W/m 16,1 km/h (3 Bft) 97,87 %
26.09.2020 05:12 10,0 C 9,4 C 8,9 C 98 % 993,1 hPa 0,0 l/m 0 min 2 min 0 W/m 12,9 km/h (3 Bft) 97,83 %
26.09.2020 05:14 10,1 C 9,4 C 8,9 C 98 % 993,1 hPa 0,0 l/m 0 min 2 min 0 W/m 19,3 km/h (3 Bft) 97,87 %
26.09.2020 05:16 10,1 C 9,4 C 8,9 C 98 % 993,1 hPa 0,0 l/m 0 min 0 min 0 W/m 12,9 km/h (3 Bft) 100,00 %
26.09.2020 05:18 10,1 C 9,4 C 8,9 C 98 % 993,1 hPa 0,0 l/m 0 min 2 min 0 W/m 12,9 km/h (3 Bft) 100,00 %
26.09.2020 05:20 10,1 C 9,4 C 8,9 C 98 % 993,1 hPa 0,0 l/m 0 min 0 min 0 W/m 6,4 km/h (2 Bft) 100,00 %
26.09.2020 05:22 10,1 C 9,4 C 8,9 C 98 % 993,0 hPa 0,0 l/m 0 min 0 min 0 W/m 6,4 km/h (2 Bft) 100,00 %
26.09.2020 05:24 10,1 C 9,4 C 8,9 C 98 % 993,0 hPa 0,0 l/m 0 min 0 min 0 W/m 19,3 km/h (3 Bft) 100,00 %
26.09.2020 05:26 10,2 C 9,4 C 8,9 C 98 % 993,0 hPa 0,0 l/m 0 min 0 min 0 W/m 12,9 km/h (3 Bft) 100,00 %
26.09.2020 05:28 10,2 C 9,4 C 8,9 C 98 % 993,0 hPa 0,2 l/m 0 min 2 min 0 W/m 9,7 km/h (2 Bft) 100,00 %
26.09.2020 05:30 10,2 C 9,4 C 8,9 C 98 % 993,0 hPa 0,2 l/m 0 min 2 min 0 W/m 19,3 km/h (3 Bft) 97,87 %
26.09.2020 05:32 10,2 C 9,4 C 8,9 C 98 % 992,9 hPa 0,0 l/m 0 min 2 min 0 W/m 16,1 km/h (3 Bft) 100,00 %
26.09.2020 05:34 10,2 C 9,4 C 8,9 C 98 % 992,9 hPa 0,0 l/m 0 min 0 min 0 W/m 6,4 km/h (2 Bft) 100,00 %
26.09.2020 05:36 10,2 C 9,4 C 8,9 C 98 % 992,9 hPa 0,0 l/m 0 min 0 min 0 W/m 6,4 km/h (2 Bft) 100,00 %
26.09.2020 05:38 10,2 C 9,4 C 9,4 C 98 % 992,9 hPa 0,0 l/m 0 min 0 min 0 W/m 0,0 km/h (0 Bft) 100,00 %
26.09.2020 05:40 10,3 C 9,4 C 8,9 C 98 % 992,9 hPa 0,0 l/m 0 min 0 min 0 W/m 9,7 km/h (2 Bft) 100,00 %
26.09.2020 05:42 10,3 C 9,4 C 8,9 C 98 % 993,0 hPa 0,0 l/m 0 min 2 min 0 W/m 12,9 km/h (3 Bft) 100,00 %
26.09.2020 05:44 10,3 C 9,4 C 8,9 C 98 % 992,9 hPa 0,0 l/m 0 min 2 min 0 W/m 3,2 km/h (1 Bft) 100,00 %
26.09.2020 05:46 10,3 C 9,4 C 8,9 C 98 % 993,0 hPa 0,0 l/m 0 min 2 min 0 W/m 16,1 km/h (3 Bft) 96,55 %
26.09.2020 05:48 10,3 C 9,4 C 8,9 C 98 % 992,9 hPa 0,2 l/m 0 min 2 min 0 W/m 16,1 km/h (3 Bft) 95,74 %
26.09.2020 05:50 10,3 C 9,4 C 8,9 C 98 % 992,9 hPa 0,2 l/m 0 min 2 min 0 W/m 22,5 km/h (4 Bft) 100,00 %
26.09.2020 05:52 10,3 C 9,4 C 8,9 C 98 % 993,1 hPa 0,0 l/m 0 min 2 min 0 W/m 16,1 km/h (3 Bft) 97,87 %
26.09.2020 05:54 10,3 C 9,4 C 8,9 C 98 % 993,0 hPa 0,0 l/m 0 min 2 min 0 W/m 6,4 km/h (2 Bft) 98,31 %
26.09.2020 05:56 10,3 C 9,4 C 8,9 C 98 % 993,0 hPa 0,0 l/m 0 min 2 min 0 W/m 6,4 km/h (2 Bft) 97,14 %
26.09.2020 05:58 10,3 C 9,4 C 8,9 C 98 % 993,0 hPa 0,0 l/m 0 min 2 min 0 W/m 3,2 km/h (1 Bft) 98,28 %
26.09.2020 06:00 10,3 C 9,4 C 8,9 C 98 % 992,9 hPa 0,0 l/m 0 min 2 min 0 W/m 16,1 km/h (3 Bft) 95,74 %
26.09.2020 06:02 10,3 C 9,4 C 8,9 C 98 % 993,0 hPa 0,0 l/m 0 min 0 min 0 W/m 12,9 km/h (3 Bft) 97,14 %
26.09.2020 06:04 10,3 C 9,4 C 9,4 C 98 % 993,0 hPa 0,2 l/m 0 min 2 min 0 W/m 3,2 km/h (1 Bft) 98,21 %
26.09.2020 06:08 10,3 C 9,4 C 9,4 C 98 % 993,0 hPa 0,0 l/m 0 min 4 min 0 W/m 12,9 km/h (3 Bft) 97,94 %
26.09.2020 06:10 10,3 C 9,4 C 9,4 C 99 % 993,1 hPa 0,2 l/m 0 min 2 min 0 W/m 12,9 km/h (3 Bft) 95,65 %
26.09.2020 06:12 10,3 C 9,4 C 9,4 C 99 % 993,0 hPa 0,0 l/m 0 min 2 min 0 W/m 12,9 km/h (3 Bft) 93,62 %
26.09.2020 06:14 10,3 C 9,4 C 9,4 C 99 % 993,1 hPa 0,0 l/m 0 min 2 min 0 W/m 16,1 km/h (3 Bft) 95,74 %
26.09.2020 06:16 10,3 C 9,4 C 9,4 C 99 % 993,1 hPa 0,0 l/m 0 min 2 min 0 W/m 6,4 km/h (2 Bft) 97,87 %
26.09.2020 06:18 10,3 C 9,4 C 9,4 C 99 % 993,1 hPa 0,0 l/m 0 min 2 min 0 W/m 6,4 km/h (2 Bft) 97,87 %
26.09.2020 06:20 10,3 C 9,4 C 9,4 C 99 % 993,1 hPa 0,0 l/m 0 min 2 min 0 W/m 3,2 km/h (1 Bft) 97,83 %
26.09.2020 06:22 10,4 C 9,4 C 9,4 C 99 % 993,2 hPa 0,0 l/m 0 min 2 min 0 W/m 16,1 km/h (3 Bft) 93,62 %
26.09.2020 06:24 10,4 C 9,4 C 9,4 C 99 % 993,2 hPa 0,0 l/m 0 min 2 min 0 W/m 12,9 km/h (3 Bft) 97,87 %
26.09.2020 06:26 10,4 C 9,4 C 9,4 C 99 % 993,2 hPa 0,2 l/m 0 min 2 min 0 W/m 6,4 km/h (2 Bft) 95,74 %
26.09.2020 06:28 10,4 C 9,4 C 9,4 C 99 % 993,3 hPa 0,0 l/m 0 min 2 min 0 W/m 3,2 km/h (1 Bft) 95,74 %
26.09.2020 06:30 10,4 C 9,4 C 9,4 C 99 % 993,3 hPa 0,0 l/m 0 min 2 min 0 W/m 0,0 km/h (0 Bft) 93,62 %
26.09.2020 06:32 10,4 C 9,4 C 9,4 C 99 % 993,3 hPa 0,0 l/m 0 min 0 min 0 W/m 0,0 km/h (0 Bft) 93,62 %
26.09.2020 06:34 10,4 C 9,4 C 9,4 C 99 % 993,3 hPa 0,0 l/m 0 min 0 min 0 W/m 6,4 km/h (2 Bft) 95,65 %
26.09.2020 06:36 10,5 C 9,4 C 9,4 C 99 % 993,3 hPa 0,0 l/m 0 min 0 min 0 W/m 6,4 km/h (2 Bft) 95,74 %
26.09.2020 06:38 10,5 C 9,4 C 9,4 C 99 % 993,4 hPa 0,0 l/m 0 min 0 min 0 W/m 0,0 km/h (0 Bft) 95,74 %
26.09.2020 06:40 10,5 C 9,4 C 9,4 C 99 % 993,4 hPa 0,0 l/m 0 min 0 min 0 W/m 6,4 km/h (2 Bft) 95,74 %
26.09.2020 06:42 10,5 C 9,4 C 9,4 C 99 % 993,4 hPa 0,0 l/m 0 min 0 min 0 W/m 19,3 km/h (3 Bft) 93,62 %
26.09.2020 06:44 10,5 C 9,4 C 9,4 C 99 % 993,5 hPa 0,0 l/m 0 min 0 min 0 W/m 3,2 km/h (1 Bft) 95,65 %
26.09.2020 06:46 10,5 C 9,4 C 9,4 C 99 % 993,6 hPa 0,2 l/m 0 min 2 min 0 W/m 6,4 km/h (2 Bft) 93,62 %
26.09.2020 06:48 10,5 C 9,4 C 9,4 C 99 % 993,6 hPa 0,0 l/m 0 min 2 min 0 W/m 0,0 km/h (0 Bft) 95,74 %
26.09.2020 06:50 10,5 C 9,4 C 9,4 C 99 % 993,6 hPa 0,0 l/m 0 min 0 min 0 W/m 6,4 km/h (2 Bft) 95,74 %
26.09.2020 06:52 10,5 C 9,4 C 9,4 C 99 % 993,7 hPa 0,0 l/m 0 min 0 min 0 W/m 0,0 km/h (0 Bft) 93,62 %
26.09.2020 06:54 10,6 C 9,4 C 9,4 C 99 % 993,7 hPa 0,0 l/m 0 min 0 min 0 W/m 0,0 km/h (0 Bft) 95,74 %
26.09.2020 06:56 10,6 C 9,4 C 9,4 C 99 % 993,8 hPa 0,0 l/m 0 min 0 min 0 W/m 3,2 km/h (1 Bft) 95,65 %
26.09.2020 06:58 10,6 C 9,4 C 9,4 C 99 % 993,8 hPa 0,0 l/m 0 min 0 min 0 W/m 0,0 km/h (0 Bft) 97,87 %
26.09.2020 07:00 10,6 C 9,4 C 9,4 C 99 % 993,8 hPa 0,2 l/m 0 min 0 min 0 W/m 0,0 km/h (0 Bft) 95,74 %
26.09.2020 07:02 10,5 C 9,4 C 9,4 C 99 % 993,9 hPa 0,0 l/m 0 min 0 min 0 W/m 6,4 km/h (2 Bft) 95,74 %
26.09.2020 07:04 10,6 C 9,4 C 9,4 C 99 % 993,9 hPa 0,0 l/m 0 min 2 min 0 W/m 0,0 km/h (0 Bft) 95,74 %
26.09.2020 07:06 10,6 C 9,4 C 9,4 C 99 % 994,0 hPa 0,0 l/m 0 min 2 min 0 W/m 3,2 km/h (1 Bft) 95,74 %
26.09.2020 07:08 10,5 C 9,4 C 9,4 C 99 % 994,0 hPa 0,0 l/m 0 min 0 min 0 W/m 0,0 km/h (0 Bft) 97,83 %
26.09.2020 07:10 10,5 C 9,4 C 9,4 C 99 % 994,0 hPa 0,0 l/m 0 min 0 min 0 W/m 3,2 km/h (1 Bft) 97,87 %
26.09.2020 07:12 10,6 C 9,4 C 9,4 C 99 % 994,0 hPa 0,2 l/m 0 min 2 min 0 W/m 6,4 km/h (2 Bft) 97,87 %
26.09.2020 07:14 10,5 C 9,4 C 9,4 C 99 % 994,0 hPa 0,0 l/m 0 min 2 min 0 W/m 0,0 km/h (0 Bft) 95,65 %
26.09.2020 07:16 10,5 C 9,4 C 9,4 C 99 % 994,1 hPa 0,0 l/m 0 min 2 min 0 W/m 0,0 km/h (0 Bft) 95,65 %
26.09.2020 07:18 10,5 C 9,4 C 9,4 C 99 % 994,1 hPa 0,0 l/m 0 min 2 min 0 W/m 0,0 km/h (0 Bft) 97,87 %
26.09.2020 07:20 10,5 C 9,4 C 9,4 C 99 % 994,2 hPa 0,0 l/m 0 min 2 min 0 W/m 0,0 km/h (0 Bft) 95,74 %
26.09.2020 07:22 10,5 C 9,4 C 9,4 C 99 % 994,3 hPa 0,0 l/m 0 min 2 min 0 W/m 0,0 km/h (0 Bft) 97,87 %
26.09.2020 07:24 10,5 C 9,4 C 9,4 C 99 % 994,3 hPa 0,2 l/m 0 min 2 min 0 W/m 3,2 km/h (1 Bft) 97,87 %
26.09.2020 07:26 10,5 C 9,4 C 9,4 C 99 % 994,3 hPa 0,0 l/m 0 min 2 min 0 W/m 0,0 km/h (0 Bft) 97,87 %
26.09.2020 07:28 10,5 C 9,4 C 9,4 C 99 % 994,3 hPa 0,0 l/m 0 min 0 min 0 W/m 9,7 km/h (2 Bft) 97,83 %
26.09.2020 07:30 10,4 C 9,4 C 9,4 C 99 % 994,3 hPa 0,0 l/m 0 min 0 min 0 W/m 3,2 km/h (1 Bft) 97,87 %
26.09.2020 07:32 10,4 C 9,4 C 9,4 C 99 % 994,3 hPa 0,0 l/m 0 min 0 min 0 W/m 0,0 km/h (0 Bft) 97,87 %
26.09.2020 07:34 10,4 C 9,4 C 9,4 C 99 % 994,4 hPa 0,0 l/m 0 min 0 min 0 W/m 0,0 km/h (0 Bft) 97,87 %
26.09.2020 07:36 10,4 C 9,4 C 9,4 C 99 % 994,4 hPa 0,0 l/m 0 min 0 min 0 W/m 6,4 km/h (2 Bft) 97,87 %
26.09.2020 07:38 10,4 C 9,4 C 9,4 C 99 % 994,5 hPa 0,0 l/m 0 min 0 min 0 W/m 6,4 km/h (2 Bft) 95,74 %
26.09.2020 07:40 10,4 C 9,4 C 9,4 C 99 % 994,5 hPa 0,0 l/m 0 min 0 min 0 W/m 6,4 km/h (2 Bft) 95,65 %
26.09.2020 07:42 10,4 C 9,4 C 9,4 C 99 % 994,5 hPa 0,0 l/m 0 min 0 min 0 W/m 0,0 km/h (0 Bft) 97,87 %
26.09.2020 07:44 10,4 C 9,4 C 9,4 C 99 % 994,5 hPa 0,0 l/m 0 min 0 min 0 W/m 6,4 km/h (2 Bft) 97,87 %
26.09.2020 07:46 10,4 C 9,4 C 9,4 C 99 % 994,5 hPa 0,0 l/m 0 min 0 min 0 W/m 6,4 km/h (2 Bft) 100,00 %
26.09.2020 07:48 10,4 C 9,4 C 9,4 C 99 % 994,6 hPa 0,0 l/m 0 min 0 min 0 W/m 3,2 km/h (1 Bft) 97,87 %
26.09.2020 07:50 10,4 C 9,4 C 9,4 C 99 % 994,6 hPa 0,0 l/m 0 min 0 min 0 W/m 6,4 km/h (2 Bft) 95,74 %
26.09.2020 07:52 10,4 C 9,4 C 9,4 C 99 % 994,7 hPa 0,0 l/m 0 min 0 min 0 W/m 0,0 km/h (0 Bft) 97,83 %
26.09.2020 07:54 10,3 C 9,4 C 9,4 C 99 % 994,7 hPa 0,0 l/m 0 min 0 min 0 W/m 0,0 km/h (0 Bft) 100,00 %
26.09.2020 07:56 10,3 C 9,4 C 9,4 C 99 % 994,8 hPa 0,0 l/m 0 min 0 min 0 W/m 12,9 km/h (3 Bft) 100,00 %
26.09.2020 07:58 10,3 C 9,4 C 9,4 C 99 % 994,8 hPa 0,0 l/m 0 min 0 min 0 W/m 9,7 km/h (2 Bft) 100,00 %
26.09.2020 08:00 10,3 C 9,4 C 9,4 C 99 % 994,8 hPa 0,0 l/m 0 min 0 min 0 W/m 0,0 km/h (0 Bft) 100,00 %
26.09.2020 08:02 10,3 C 9,4 C 9,4 C 99 % 994,9 hPa 0,0 l/m 0 min 0 min 0 W/m 3,2 km/h (1 Bft) 100,00 %
26.09.2020 08:04 10,3 C 9,4 C 9,4 C 99 % 994,9 hPa 0,0 l/m 0 min 0 min 4 W/m 3,2 km/h (1 Bft) 100,00 %
26.09.2020 08:06 10,3 C 9,4 C 9,4 C 99 % 994,9 hPa 0,0 l/m 0 min 0 min 5 W/m 3,2 km/h (1 Bft) 100,00 %
26.09.2020 08:08 10,3 C 9,4 C 9,4 C 99 % 994,9 hPa 0,0 l/m 0 min 0 min 7 W/m 3,2 km/h (1 Bft) 100,00 %
26.09.2020 08:10 10,3 C 9,4 C 9,4 C 99 % 995,0 hPa 0,0 l/m 0 min 0 min 9 W/m 9,7 km/h (2 Bft) 100,00 %
26.09.2020 08:12 10,3 C 9,4 C 9,4 C 99 % 995,1 hPa 0,0 l/m 0 min 0 min 12 W/m 16,1 km/h (3 Bft) 100,00 %
26.09.2020 08:14 10,3 C 9,4 C 9,4 C 99 % 995,1 hPa 0,0 l/m 0 min 0 min 15 W/m 3,2 km/h (1 Bft) 100,00 %
26.09.2020 08:16 10,3 C 9,4 C 9,4 C 99 % 995,1 hPa 0,0 l/m 0 min 0 min 20 W/m 6,4 km/h (2 Bft) 100,00 %
26.09.2020 08:18 10,3 C 9,4 C 9,4 C 99 % 995,1 hPa 0,0 l/m 0 min 0 min 27 W/m 6,4 km/h (2 Bft) 100,00 %
26.09.2020 08:20 10,3 C 9,4 C 9,4 C 99 % 995,2 hPa 0,0 l/m 0 min 0 min 28 W/m 12,9 km/h (3 Bft) 100,00 %
26.09.2020 08:22 10,3 C 9,4 C 9,4 C 99 % 995,2 hPa 0,0 l/m 0 min 0 min 27 W/m 3,2 km/h (1 Bft) 97,87 %
26.09.2020 08:24 10,3 C 9,4 C 9,4 C 99 % 995,2 hPa 0,0 l/m 0 min 0 min 26 W/m 3,2 km/h (1 Bft) 100,00 %
26.09.2020 08:26 10,3 C 9,4 C 9,4 C 99 % 995,3 hPa 0,0 l/m 0 min 0 min 23 W/m 3,2 km/h (1 Bft) 97,87 %
26.09.2020 08:28 10,3 C 9,4 C 9,4 C 99 % 995,3 hPa 0,0 l/m 0 min 0 min 19 W/m 6,4 km/h (2 Bft) 100,00 %
26.09.2020 08:30 10,3 C 9,4 C 9,4 C 99 % 995,3 hPa 0,0 l/m 0 min 0 min 17 W/m 0,0 km/h (0 Bft) 97,83 %
26.09.2020 08:32 10,3 C 9,4 C 9,4 C 99 % 995,4 hPa 0,0 l/m 0 min 0 min 16 W/m 3,2 km/h (1 Bft) 100,00 %
26.09.2020 08:34 10,3 C 9,4 C 9,4 C 99 % 995,4 hPa 0,0 l/m 0 min 0 min 18 W/m 3,2 km/h (1 Bft) 100,00 %
26.09.2020 08:36 10,3 C 9,4 C 9,4 C 99 % 995,5 hPa 0,0 l/m 0 min 0 min 16 W/m 3,2 km/h (1 Bft) 100,00 %
26.09.2020 08:38 10,3 C 9,4 C 9,4 C 99 % 995,5 hPa 0,0 l/m 0 min 0 min 14 W/m 3,2 km/h (1 Bft) 100,00 %
26.09.2020 08:40 10,3 C 9,4 C 9,4 C 99 % 995,6 hPa 0,0 l/m 0 min 0 min 12 W/m 0,0 km/h (0 Bft) 100,00 %
26.09.2020 08:42 10,3 C 9,4 C 9,4 C 99 % 995,7 hPa 0,0 l/m 0 min 0 min 13 W/m 0,0 km/h (0 Bft) 97,87 %
26.09.2020 08:44 10,3 C 9,4 C 9,4 C 99 % 995,7 hPa 0,0 l/m 0 min 0 min 19 W/m 3,2 km/h (1 Bft) 100,00 %
26.09.2020 08:46 10,3 C 9,4 C 9,4 C 99 % 995,7 hPa 0,0 l/m 0 min 0 min 25 W/m 6,4 km/h (2 Bft) 95,74 %
26.09.2020 08:48 10,3 C 9,4 C 9,4 C 99 % 995,7 hPa 0,0 l/m 0 min 0 min 24 W/m 12,9 km/h (3 Bft) 100,00 %
26.09.2020 08:50 10,3 C 9,4 C 9,4 C 99 % 995,8 hPa 0,0 l/m 0 min 0 min 19 W/m 3,2 km/h (1 Bft) 100,00 %
26.09.2020 08:52 10,3 C 9,4 C 9,4 C 99 % 995,8 hPa 0,0 l/m 0 min 0 min 21 W/m 0,0 km/h (0 Bft) 100,00 %
26.09.2020 08:54 10,3 C 9,4 C 9,4 C 99 % 995,9 hPa 0,0 l/m 0 min 0 min 22 W/m 16,1 km/h (3 Bft) 97,87 %
26.09.2020 08:56 10,3 C 9,4 C 9,4 C 99 % 996,0 hPa 0,0 l/m 0 min 0 min 19 W/m 0,0 km/h (0 Bft) 97,87 %
26.09.2020 08:58 10,3 C 9,4 C 9,4 C 99 % 996,0 hPa 0,0 l/m 0 min 0 min 18 W/m 0,0 km/h (0 Bft) 100,00 %
26.09.2020 09:00 10,3 C 9,4 C 9,4 C 99 % 996,0 hPa 0,0 l/m 0 min 0 min 18 W/m 3,2 km/h (1 Bft) 100,00 %
26.09.2020 09:02 10,3 C 9,4 C 9,4 C 99 % 996,1 hPa 0,0 l/m 0 min 0 min 20 W/m 3,2 km/h (1 Bft) 100,00 %
26.09.2020 09:04 10,3 C 9,4 C 9,4 C 99 % 996,1 hPa 0,0 l/m 0 min 0 min 16 W/m 12,9 km/h (3 Bft) 100,00 %
26.09.2020 09:06 10,3 C 9,4 C 9,4 C 99 % 996,1 hPa 0,0 l/m 0 min 0 min 10 W/m 3,2 km/h (1 Bft) 100,00 %
26.09.2020 09:08 10,3 C 9,4 C 9,4 C 99 % 996,1 hPa 0,0 l/m 0 min 0 min 9 W/m 16,1 km/h (3 Bft) 100,00 %
26.09.2020 09:10 10,3 C 9,4 C 9,4 C 99 % 996,2 hPa 0,0 l/m 0 min 0 min 10 W/m 0,0 km/h (0 Bft) 100,00 %
26.09.2020 09:12 10,3 C 9,4 C 9,4 C 99 % 996,1 hPa 0,0 l/m 0 min 0 min 12 W/m 0,0 km/h (0 Bft) 100,00 %
26.09.2020 09:14 10,3 C 9,4 C 9,4 C 99 % 996,2 hPa 0,0 l/m 0 min 0 min 16 W/m 0,0 km/h (0 Bft) 97,87 %
26.09.2020 09:16 10,3 C 9,4 C 9,4 C 99 % 996,2 hPa 0,0 l/m 0 min 0 min 20 W/m 0,0 km/h (0 Bft) 97,73 %
26.09.2020 09:18 10,3 C 9,4 C 9,4 C 99 % 996,3 hPa 0,0 l/m 0 min 0 min 19 W/m 3,2 km/h (1 Bft) 97,87 %
26.09.2020 09:20 10,3 C 9,4 C 9,4 C 99 % 996,2 hPa 0,0 l/m 0 min 0 min 24 W/m 3,2 km/h (1 Bft) 95,74 %
26.09.2020 09:22 10,3 C 9,4 C 9,4 C 99 % 996,3 hPa 0,0 l/m 0 min 0 min 25 W/m 0,0 km/h (0 Bft) 97,87 %
26.09.2020 09:24 10,3 C 9,4 C 9,4 C 99 % 996,3 hPa 0,0 l/m 0 min 0 min 27 W/m 19,3 km/h (3 Bft) 97,87 %
26.09.2020 09:26 10,3 C 9,4 C 9,4 C 99 % 996,3 hPa 0,0 l/m 0 min 0 min 35 W/m 12,9 km/h (3 Bft) 97,83 %
26.09.2020 09:28 10,3 C 9,4 C 9,4 C 99 % 996,3 hPa 0,0 l/m 0 min 0 min 41 W/m 3,2 km/h (1 Bft) 95,74 %
26.09.2020 09:30 10,3 C 9,4 C 9,4 C 99 % 996,4 hPa 0,0 l/m 0 min 0 min 41 W/m 0,0 km/h (0 Bft) 95,74 %
26.09.2020 09:32 10,3 C 9,4 C 9,4 C 99 % 996,5 hPa 0,0 l/m 0 min 0 min 42 W/m 6,4 km/h (2 Bft) 95,74 %
26.09.2020 09:34 10,3 C 9,4 C 9,4 C 99 % 996,4 hPa 0,0 l/m 0 min 0 min 59 W/m 6,4 km/h (2 Bft) 95,74 %
26.09.2020 09:36 10,3 C 9,4 C 9,4 C 99 % 996,4 hPa 0,0 l/m 0 min 0 min 73 W/m 6,4 km/h (2 Bft) 95,65 %
26.09.2020 09:38 10,3 C 10,0 C 9,4 C 99 % 996,4 hPa 0,0 l/m 0 min 0 min 93 W/m 0,0 km/h (0 Bft) 93,62 %
26.09.2020 09:40 10,3 C 10,0 C 10,0 C 99 % 996,4 hPa 0,0 l/m 0 min 0 min 98 W/m 0,0 km/h (0 Bft) 95,74 %
26.09.2020 09:42 10,4 C 10,0 C 10,0 C 99 % 996,5 hPa 0,0 l/m 0 min 0 min 120 W/m 9,7 km/h (2 Bft) 93,62 %
26.09.2020 09:44 10,4 C 10,6 C 10,0 C 99 % 996,5 hPa 0,0 l/m 0 min 0 min 126 W/m 0,0 km/h (0 Bft) 93,62 %
26.09.2020 09:46 10,5 C 10,6 C 10,0 C 99 % 996,6 hPa 0,0 l/m 0 min 0 min 124 W/m 0,0 km/h (0 Bft) 93,62 %
26.09.2020 09:48 10,5 C 10,6 C 10,0 C 99 % 996,6 hPa 0,0 l/m 0 min 0 min 125 W/m 0,0 km/h (0 Bft) 91,30 %
26.09.2020 09:50 10,6 C 10,6 C 10,0 C 99 % 996,6 hPa 0,0 l/m 0 min 0 min 138 W/m 3,2 km/h (1 Bft) 95,74 %
26.09.2020 09:52 10,6 C 10,6 C 10,0 C 99 % 996,6 hPa 0,0 l/m 0 min 0 min 165 W/m 12,9 km/h (3 Bft) 95,74 %
26.09.2020 09:54 10,7 C 10,6 C 10,6 C 99 % 996,7 hPa 0,0 l/m 0 min 0 min 140 W/m 3,2 km/h (1 Bft) 93,62 %
26.09.2020 09:56 10,7 C 10,6 C 10,0 C 99 % 996,7 hPa 0,0 l/m 0 min 0 min 144 W/m 3,2 km/h (1 Bft) 95,74 %
26.09.2020 09:58 10,7 C 10,6 C 10,0 C 99 % 996,7 hPa 0,0 l/m 0 min 0 min 161 W/m 9,7 km/h (2 Bft) 93,62 %
26.09.2020 10:00 10,8 C 11,1 C 10,6 C 100 % 996,7 hPa 0,0 l/m 2 min 0 min 187 W/m 0,0 km/h (0 Bft) 97,83 %
26.09.2020 10:02 10,8 C 11,7 C 11,1 C 100 % 996,8 hPa 0,0 l/m 2 min 0 min 295 W/m 3,2 km/h (1 Bft) 95,83 %
26.09.2020 10:04 10,9 C 12,2 C 11,7 C 100 % 996,9 hPa 0,0 l/m 2 min 0 min 298 W/m 0,0 km/h (0 Bft) 93,62 %
26.09.2020 10:06 10,9 C 12,2 C 11,7 C 100 % 996,9 hPa 0,0 l/m 2 min 0 min 220 W/m 3,2 km/h (1 Bft) 93,62 %
26.09.2020 10:08 11,0 C 11,7 C 11,1 C 99 % 996,9 hPa 0,0 l/m 0 min 0 min 185 W/m 6,4 km/h (2 Bft) 93,62 %
26.09.2020 10:10 11,1 C 11,7 C 11,1 C 99 % 997,0 hPa 0,0 l/m 0 min 0 min 160 W/m 0,0 km/h (0 Bft) 95,74 %
26.09.2020 10:12 11,1 C 11,7 C 11,1 C 99 % 997,0 hPa 0,0 l/m 0 min 0 min 157 W/m 6,4 km/h (2 Bft) 95,65 %
26.09.2020 10:14 11,2 C 11,1 C 11,1 C 100 % 997,0 hPa 0,0 l/m 0 min 0 min 144 W/m 0,0 km/h (0 Bft) 95,74 %
26.09.2020 10:16 11,2 C 11,1 C 10,6 C 100 % 997,0 hPa 0,0 l/m 0 min 0 min 142 W/m 6,4 km/h (2 Bft) 95,74 %
26.09.2020 10:18 11,2 C 11,1 C 10,6 C 100 % 997,1 hPa 0,0 l/m 0 min 0 min 139 W/m 3,2 km/h (1 Bft) 95,74 %
26.09.2020 10:20 11,2 C 11,7 C 10,6 C 100 % 997,1 hPa 0,0 l/m 0 min 0 min 159 W/m 0,0 km/h (0 Bft) 95,74 %
26.09.2020 10:22 11,1 C 11,7 C 11,1 C 100 % 997,1 hPa 0,0 l/m 0 min 0 min 165 W/m 0,0 km/h (0 Bft) 93,48 %
26.09.2020 10:24 11,1 C 11,7 C 10,6 C 100 % 997,1 hPa 0,0 l/m 0 min 0 min 161 W/m 0,0 km/h (0 Bft) 95,74 %
26.09.2020 10:26 11,1 C 11,7 C 10,6 C 100 % 997,1 hPa 0,0 l/m 0 min 0 min 181 W/m 3,2 km/h (1 Bft) 93,62 %
26.09.2020 10:28 11,1 C 11,7 C 11,1 C 100 % 997,1 hPa 0,0 l/m 0 min 0 min 187 W/m 0,0 km/h (0 Bft) 97,87 %
26.09.2020 10:30 11,2 C 11,7 C 10,6 C 100 % 997,2 hPa 0,0 l/m 0 min 0 min 145 W/m 0,0 km/h (0 Bft) 95,74 %
26.09.2020 10:32 11,2 C 11,7 C 10,6 C 100 % 997,2 hPa 0,0 l/m 0 min 0 min 79 W/m 0,0 km/h (0 Bft) 97,92 %
26.09.2020 10:34 11,2 C 11,1 C 10,6 C 100 % 997,2 hPa 0,0 l/m 0 min 0 min 82 W/m 0,0 km/h (0 Bft) 95,65 %
26.09.2020 10:36 11,2 C 11,1 C 10,6 C 100 % 997,3 hPa 0,0 l/m 0 min 0 min 90 W/m 0,0 km/h (0 Bft) 95,74 %
26.09.2020 10:38 11,2 C 11,1 C 10,6 C 100 % 997,3 hPa 0,0 l/m 0 min 0 min 108 W/m 0,0 km/h (0 Bft) 93,62 %
26.09.2020 10:40 11,2 C 11,7 C 10,6 C 100 % 997,4 hPa 0,0 l/m 0 min 0 min 145 W/m 3,2 km/h (1 Bft) 97,87 %
26.09.2020 10:42 11,2 C 11,7 C 10,6 C 100 % 997,4 hPa 0,0 l/m 2 min 0 min 226 W/m 0,0 km/h (0 Bft) 95,74 %
26.09.2020 10:44 11,3 C 12,2 C 11,1 C 100 % 997,4 hPa 0,0 l/m 0 min 0 min 187 W/m 0,0 km/h (0 Bft) 97,87 %
26.09.2020 10:46 11,3 C 12,2 C 11,1 C 100 % 997,4 hPa 0,0 l/m 0 min 0 min 133 W/m 0,0 km/h (0 Bft) 97,83 %
26.09.2020 10:48 11,3 C 11,7 C 10,6 C 100 % 997,4 hPa 0,0 l/m 0 min 0 min 80 W/m 0,0 km/h (0 Bft) 95,74 %
26.09.2020 10:50 11,3 C 11,1 C 10,6 C 100 % 997,5 hPa 0,0 l/m 0 min 0 min 52 W/m 0,0 km/h (0 Bft) 97,87 %
26.09.2020 10:52 11,3 C 11,1 C 10,6 C 100 % 997,5 hPa 0,0 l/m 0 min 0 min 45 W/m 0,0 km/h (0 Bft) 97,87 %
26.09.2020 10:54 11,3 C 10,6 C 10,6 C 100 % 997,6 hPa 0,0 l/m 0 min 0 min 59 W/m 9,7 km/h (2 Bft) 97,87 %
26.09.2020 10:56 11,2 C 10,6 C 10,0 C 100 % 997,5 hPa 0,0 l/m 0 min 0 min 89 W/m 9,7 km/h (2 Bft) 97,87 %
26.09.2020 10:58 11,2 C 10,6 C 10,0 C 100 % 997,6 hPa 0,0 l/m 0 min 0 min 99 W/m 0,0 km/h (0 Bft) 97,83 %
26.09.2020 11:00 11,2 C 10,6 C 10,0 C 100 % 997,6 hPa 0,0 l/m 0 min 0 min 95 W/m 9,7 km/h (2 Bft) 97,87 %
26.09.2020 11:02 11,2 C 10,6 C 10,6 C 100 % 997,6 hPa 0,0 l/m 0 min 0 min 94 W/m 3,2 km/h (1 Bft) 97,87 %
26.09.2020 11:04 11,2 C 10,6 C 10,0 C 100 % 997,6 hPa 0,0 l/m 0 min 0 min 85 W/m 0,0 km/h (0 Bft) 97,87 %
26.09.2020 11:06 11,2 C 10,6 C 10,0 C 100 % 997,5 hPa 0,0 l/m 0 min 0 min 62 W/m 0,0 km/h (0 Bft) 100,00 %
26.09.2020 11:08 11,1 C 10,6 C 10,0 C 99 % 997,6 hPa 0,0 l/m 0 min 0 min 45 W/m 3,2 km/h (1 Bft) 100,00 %
26.09.2020 11:10 11,1 C 10,6 C 10,0 C 99 % 997,6 hPa 0,0 l/m 0 min 0 min 70 W/m 0,0 km/h (0 Bft) 100,00 %
26.09.2020 11:12 11,1 C 10,6 C 10,0 C 99 % 997,7 hPa 0,0 l/m 0 min 0 min 82 W/m 0,0 km/h (0 Bft) 100,00 %
26.09.2020 11:14 11,1 C 10,6 C 10,0 C 99 % 997,7 hPa 0,0 l/m 0 min 0 min 87 W/m 3,2 km/h (1 Bft) 100,00 %
26.09.2020 11:16 11,1 C 10,6 C 10,0 C 99 % 997,7 hPa 0,0 l/m 0 min 0 min 113 W/m 0,0 km/h (0 Bft) 100,00 %
26.09.2020 11:18 11,0 C 10,6 C 10,0 C 99 % 997,7 hPa 0,0 l/m 0 min 0 min 121 W/m 0,0 km/h (0 Bft) 100,00 %
26.09.2020 11:20 11,0 C 10,6 C 10,0 C 99 % 997,7 hPa 0,0 l/m 0 min 0 min 106 W/m 0,0 km/h (0 Bft) 100,00 %
26.09.2020 11:22 11,0 C 10,6 C 10,0 C 99 % 997,7 hPa 0,0 l/m 0 min 0 min 84 W/m 0,0 km/h (0 Bft) 100,00 %
26.09.2020 11:24 11,0 C 10,6 C 10,0 C 99 % 997,7 hPa 0,0 l/m 0 min 0 min 87 W/m 3,2 km/h (1 Bft) 100,00 %
26.09.2020 11:26 11,0 C 10,6 C 10,0 C 99 % 997,8 hPa 0,0 l/m 0 min 0 min 107 W/m 6,4 km/h (2 Bft) 100,00 %
26.09.2020 11:28 11,0 C 10,6 C 10,6 C 99 % 997,8 hPa 0,0 l/m 0 min 0 min 130 W/m 3,2 km/h (1 Bft) 100,00 %
26.09.2020 11:30 11,0 C 11,1 C 10,6 C 99 % 997,8 hPa 0,0 l/m 0 min 0 min 108 W/m 0,0 km/h (0 Bft) 100,00 %
26.09.2020 11:32 11,0 C 11,7 C 10,6 C 99 % 997,9 hPa 0,0 l/m 0 min 0 min 164 W/m 0,0 km/h (0 Bft) 100,00 %
26.09.2020 11:34 11,1 C 11,7 C 10,6 C 99 % 997,8 hPa 0,0 l/m 0 min 0 min 184 W/m 0,0 km/h (0 Bft) 100,00 %
26.09.2020 11:36 11,1 C 11,1 C 10,6 C 99 % 997,9 hPa 0,0 l/m 0 min 0 min 128 W/m 3,2 km/h (1 Bft) 100,00 %
26.09.2020 11:38 11,1 C 11,1 C 10,6 C 99 % 997,9 hPa 0,0 l/m 0 min 0 min 104 W/m 0,0 km/h (0 Bft) 100,00 %
26.09.2020 11:40 11,1 C 10,6 C 10,6 C 99 % 998,0 hPa 0,0 l/m 0 min 0 min 77 W/m 16,1 km/h (3 Bft) 100,00 %
26.09.2020 11:42 11,1 C 10,6 C 10,6 C 99 % 998,0 hPa 0,0 l/m 0 min 0 min 79 W/m 6,4 km/h (2 Bft) 100,00 %
26.09.2020 11:44 11,1 C 10,6 C 10,0 C 99 % 998,0 hPa 0,0 l/m 0 min 0 min 91 W/m 12,9 km/h (3 Bft) 53,49 %
26.09.2020 11:46 11,0 C 10,6 C 10,0 C 99 % 998,1 hPa 0,0 l/m 0 min 0 min 80 W/m 9,7 km/h (2 Bft) 97,83 %
26.09.2020 11:48 11,0 C 10,6 C 10,0 C 99 % 998,1 hPa 0,0 l/m 0 min 2 min 77 W/m 6,4 km/h (2 Bft) 95,74 %
26.09.2020 11:50 10,9 C 10,6 C 10,0 C 99 % 998,1 hPa 0,0 l/m 0 min 0 min 79 W/m 6,4 km/h (2 Bft) 97,87 %
26.09.2020 11:52 10,9 C 10,6 C 10,0 C 99 % 998,2 hPa 0,0 l/m 0 min 0 min 76 W/m 3,2 km/h (1 Bft) 97,87 %
26.09.2020 11:54 10,9 C 10,6 C 10,0 C 99 % 998,1 hPa 0,0 l/m 0 min 0 min 72 W/m 6,4 km/h (2 Bft) 97,87 %
26.09.2020 11:56 10,9 C 10,6 C 10,0 C 99 % 998,2 hPa 0,0 l/m 0 min 0 min 88 W/m 3,2 km/h (1 Bft) 95,74 %
26.09.2020 11:58 10,9 C 10,6 C 10,0 C 99 % 998,3 hPa 0,0 l/m 0 min 0 min 113 W/m 0,0 km/h (0 Bft) 97,83 %
26.09.2020 12:00 10,9 C 11,1 C 10,6 C 99 % 998,3 hPa 0,0 l/m 0 min 0 min 132 W/m 0,0 km/h (0 Bft) 97,87 %
26.09.2020 12:02 10,9 C 11,1 C 10,6 C 99 % 998,3 hPa 0,0 l/m 0 min 0 min 146 W/m 0,0 km/h (0 Bft) 97,87 %
26.09.2020 12:04 11,0 C 11,1 C 10,6 C 99 % 998,3 hPa 0,0 l/m 0 min 0 min 158 W/m 0,0 km/h (0 Bft) 97,87 %
26.09.2020 12:08 11,1 C 11,1 C 10,6 C 99 % 998,3 hPa 0,0 l/m 0 min 0 min 155 W/m 16,1 km/h (3 Bft) 97,87 %
26.09.2020 12:10 11,1 C 11,7 C 10,6 C 99 % 998,3 hPa 0,0 l/m 0 min 0 min 165 W/m 6,4 km/h (2 Bft) 95,65 %
26.09.2020 12:12 11,1 C 11,7 C 10,6 C 99 % 998,2 hPa 0,0 l/m 0 min 0 min 177 W/m 6,4 km/h (2 Bft) 95,74 %
26.09.2020 12:14 11,1 C 11,7 C 10,6 C 99 % 998,2 hPa 0,0 l/m 0 min 0 min 181 W/m 6,4 km/h (2 Bft) 97,87 %
26.09.2020 12:16 11,2 C 11,7 C 10,6 C 100 % 998,2 hPa 0,0 l/m 0 min 0 min 181 W/m 19,3 km/h (3 Bft) 95,74 %
26.09.2020 12:18 11,2 C 11,7 C 10,6 C 100 % 998,3 hPa 0,0 l/m 0 min 0 min 186 W/m 9,7 km/h (2 Bft) 97,87 %
26.09.2020 12:20 11,2 C 11,7 C 10,6 C 100 % 998,3 hPa 0,0 l/m 0 min 0 min 182 W/m 12,9 km/h (3 Bft) 95,74 %
26.09.2020 12:22 11,2 C 11,7 C 11,1 C 100 % 998,4 hPa 0,0 l/m 0 min 0 min 187 W/m 9,7 km/h (2 Bft) 97,83 %
26.09.2020 12:24 11,3 C 11,7 C 11,1 C 100 % 998,4 hPa 0,0 l/m 0 min 0 min 195 W/m 9,7 km/h (2 Bft) 97,87 %
26.09.2020 12:26 11,3 C 11,7 C 11,1 C 100 % 998,4 hPa 0,0 l/m 0 min 0 min 201 W/m 9,7 km/h (2 Bft) 97,87 %
26.09.2020 12:28 11,3 C 11,7 C 10,6 C 99 % 998,4 hPa 0,0 l/m 0 min 0 min 198 W/m 9,7 km/h (2 Bft) 97,87 %
26.09.2020 12:30 11,3 C 11,7 C 11,1 C 99 % 998,4 hPa 0,0 l/m 0 min 0 min 198 W/m 9,7 km/h (2 Bft) 95,74 %
26.09.2020 12:32 11,3 C 12,2 C 11,1 C 99 % 998,4 hPa 0,0 l/m 0 min 0 min 214 W/m 0,0 km/h (0 Bft) 100,00 %
26.09.2020 12:34 11,4 C 12,8 C 11,1 C 99 % 998,5 hPa 0,0 l/m 0 min 0 min 223 W/m 9,7 km/h (2 Bft) 100,00 %
26.09.2020 12:36 11,4 C 12,2 C 11,1 C 100 % 998,5 hPa 0,0 l/m 0 min 0 min 221 W/m 12,9 km/h (3 Bft) 100,00 %
26.09.2020 12:38 11,5 C 12,2 C 11,1 C 100 % 998,6 hPa 0,0 l/m 0 min 0 min 190 W/m 12,9 km/h (3 Bft) 97,87 %
26.09.2020 12:40 11,5 C 11,7 C 11,1 C 100 % 998,6 hPa 0,0 l/m 0 min 0 min 161 W/m 6,4 km/h (2 Bft) 95,74 %
26.09.2020 12:42 11,5 C 11,7 C 10,6 C 100 % 998,7 hPa 0,0 l/m 0 min 0 min 146 W/m 6,4 km/h (2 Bft) 95,74 %
26.09.2020 12:44 11,5 C 11,7 C 10,6 C 100 % 998,6 hPa 0,0 l/m 0 min 0 min 164 W/m 6,4 km/h (2 Bft) 97,87 %
26.09.2020 12:46 11,5 C 11,7 C 10,6 C 99 % 998,6 hPa 0,0 l/m 0 min 0 min 175 W/m 9,7 km/h (2 Bft) 97,83 %
26.09.2020 12:48 11,5 C 11,7 C 11,1 C 99 % 998,7 hPa 0,0 l/m 0 min 0 min 172 W/m 6,4 km/h (2 Bft) 97,87 %
26.09.2020 12:50 11,6 C 11,7 C 11,1 C 99 % 998,6 hPa 0,0 l/m 0 min 0 min 179 W/m 9,7 km/h (2 Bft) 97,87 %
26.09.2020 12:52 11,6 C 11,7 C 11,1 C 99 % 998,6 hPa 0,0 l/m 0 min 0 min 177 W/m 6,4 km/h (2 Bft) 97,87 %
26.09.2020 12:54 11,6 C 12,2 C 11,1 C 99 % 998,7 hPa 0,0 l/m 0 min 0 min 168 W/m 9,7 km/h (2 Bft) 97,87 %
26.09.2020 12:56 11,6 C 11,7 C 11,1 C 99 % 998,7 hPa 0,0 l/m 0 min 0 min 161 W/m 12,9 km/h (3 Bft) 97,83 %
26.09.2020 12:58 11,6 C 11,7 C 10,6 C 99 % 998,7 hPa 0,0 l/m 0 min 0 min 156 W/m 9,7 km/h (2 Bft) 97,87 %
26.09.2020 13:00 11,6 C 11,7 C 10,6 C 99 % 998,8 hPa 0,0 l/m 0 min 0 min 151 W/m 6,4 km/h (2 Bft) 93,62 %
26.09.2020 13:02 11,6 C 11,7 C 10,6 C 99 % 998,7 hPa 0,0 l/m 0 min 0 min 135 W/m 6,4 km/h (2 Bft) 97,87 %
26.09.2020 13:04 11,6 C 11,7 C 10,6 C 99 % 998,8 hPa 0,0 l/m 0 min 0 min 133 W/m 9,7 km/h (2 Bft) 95,74 %
26.09.2020 13:06 11,6 C 11,7 C 10,6 C 99 % 998,8 hPa 0,0 l/m 0 min 0 min 116 W/m 6,4 km/h (2 Bft) 97,87 %
26.09.2020 13:08 11,6 C 11,7 C 10,6 C 99 % 998,8 hPa 0,0 l/m 0 min 0 min 113 W/m 9,7 km/h (2 Bft) 97,83 %
26.09.2020 13:10 11,6 C 11,7 C 10,6 C 99 % 998,8 hPa 0,0 l/m 0 min 0 min 126 W/m 6,4 km/h (2 Bft) 95,74 %
26.09.2020 13:12 11,6 C 11,7 C 10,6 C 99 % 998,8 hPa 0,0 l/m 0 min 0 min 151 W/m 6,4 km/h (2 Bft) 93,62 %
26.09.2020 13:14 11,6 C 11,7 C 10,6 C 99 % 998,8 hPa 0,0 l/m 0 min 0 min 164 W/m 9,7 km/h (2 Bft) 97,87 %
26.09.2020 13:16 11,6 C 11,7 C 10,6 C 99 % 998,8 hPa 0,0 l/m 0 min 0 min 163 W/m 9,7 km/h (2 Bft) 97,87 %
26.09.2020 13:18 11,6 C 11,7 C 10,6 C 99 % 998,9 hPa 0,0 l/m 0 min 0 min 159 W/m 6,4 km/h (2 Bft) 97,87 %
26.09.2020 13:20 11,6 C 11,7 C 10,6 C 99 % 999,0 hPa 0,0 l/m 0 min 0 min 162 W/m 16,1 km/h (3 Bft) 95,65 %
26.09.2020 13:22 11,6 C 11,7 C 10,6 C 99 % 999,1 hPa 0,0 l/m 0 min 0 min 148 W/m 12,9 km/h (3 Bft) 93,62 %
26.09.2020 13:24 11,6 C 11,7 C 10,6 C 99 % 999,1 hPa 0,0 l/m 0 min 0 min 107 W/m 6,4 km/h (2 Bft) 97,87 %
26.09.2020 13:26 11,6 C 11,7 C 10,6 C 99 % 999,1 hPa 0,0 l/m 0 min 0 min 108 W/m 6,4 km/h (2 Bft) 100,00 %
26.09.2020 13:28 11,6 C 11,7 C 10,6 C 99 % 999,1 hPa 0,0 l/m 0 min 0 min 127 W/m 9,7 km/h (2 Bft) 100,00 %
26.09.2020 13:30 11,6 C 11,7 C 11,1 C 99 % 999,2 hPa 0,0 l/m 0 min 0 min 150 W/m 6,4 km/h (2 Bft) 97,87 %
26.09.2020 13:32 11,7 C 11,7 C 11,1 C 99 % 999,2 hPa 0,0 l/m 0 min 0 min 165 W/m 6,4 km/h (2 Bft) 100,00 %
26.09.2020 13:34 11,7 C 11,7 C 11,1 C 99 % 999,2 hPa 0,0 l/m 0 min 0 min 174 W/m 0,0 km/h (0 Bft) 95,74 %
26.09.2020 13:36 11,7 C 11,7 C 11,1 C 99 % 999,2 hPa 0,0 l/m 0 min 0 min 181 W/m 3,2 km/h (1 Bft) 97,87 %
26.09.2020 13:38 11,7 C 11,7 C 11,1 C 99 % 999,2 hPa 0,0 l/m 0 min 0 min 189 W/m 12,9 km/h (3 Bft) 97,87 %
26.09.2020 13:40 11,8 C 12,2 C 11,1 C 99 % 999,3 hPa 0,0 l/m 0 min 0 min 178 W/m 9,7 km/h (2 Bft) 97,87 %
26.09.2020 13:42 11,8 C 11,7 C 11,1 C 99 % 999,3 hPa 0,0 l/m 0 min 0 min 154 W/m 9,7 km/h (2 Bft) 97,87 %
26.09.2020 13:44 11,8 C 11,7 C 11,1 C 99 % 999,3 hPa 0,0 l/m 0 min 0 min 126 W/m 6,4 km/h (2 Bft) 95,65 %
26.09.2020 13:46 11,8 C 11,7 C 10,6 C 99 % 999,4 hPa 0,0 l/m 0 min 0 min 124 W/m 9,7 km/h (2 Bft) 97,87 %
26.09.2020 13:48 11,8 C 11,7 C 10,6 C 98 % 999,4 hPa 0,0 l/m 0 min 0 min 131 W/m 9,7 km/h (2 Bft) 97,87 %
26.09.2020 13:50 11,8 C 11,7 C 10,6 C 98 % 999,5 hPa 0,0 l/m 0 min 0 min 129 W/m 9,7 km/h (2 Bft) 97,87 %
26.09.2020 13:52 11,8 C 11,1 C 10,6 C 98 % 999,5 hPa 0,0 l/m 0 min 0 min 122 W/m 12,9 km/h (3 Bft) 95,74 %
26.09.2020 13:54 11,8 C 11,1 C 10,6 C 98 % 999,5 hPa 0,0 l/m 0 min 0 min 121 W/m 12,9 km/h (3 Bft) 95,65 %
26.09.2020 13:56 11,7 C 11,1 C 10,6 C 98 % 999,5 hPa 0,0 l/m 0 min 0 min 125 W/m 6,4 km/h (2 Bft) 97,87 %
26.09.2020 13:58 11,7 C 11,1 C 10,6 C 98 % 999,5 hPa 0,0 l/m 0 min 0 min 124 W/m 6,4 km/h (2 Bft) 97,87 %
26.09.2020 14:00 11,7 C 11,1 C 10,6 C 98 % 999,5 hPa 0,0 l/m 0 min 0 min 117 W/m 12,9 km/h (3 Bft) 100,00 %
26.09.2020 14:02 11,7 C 11,1 C 10,6 C 98 % 999,5 hPa 0,0 l/m 0 min 0 min 111 W/m 12,9 km/h (3 Bft) 97,87 %
26.09.2020 14:04 11,7 C 11,7 C 10,6 C 98 % 999,6 hPa 0,0 l/m 0 min 0 min 117 W/m 6,4 km/h (2 Bft) 97,87 %
26.09.2020 14:06 11,7 C 11,7 C 10,6 C 98 % 999,5 hPa 0,0 l/m 0 min 0 min 133 W/m 3,2 km/h (1 Bft) 93,48 %
26.09.2020 14:08 11,7 C 11,7 C 10,6 C 98 % 999,6 hPa 0,0 l/m 0 min 0 min 154 W/m 6,4 km/h (2 Bft) 97,87 %
26.09.2020 14:10 11,7 C 12,2 C 10,6 C 98 % 999,6 hPa 0,0 l/m 0 min 0 min 160 W/m 6,4 km/h (2 Bft) 97,87 %
26.09.2020 14:12 11,8 C 12,2 C 11,1 C 98 % 999,6 hPa 0,0 l/m 0 min 0 min 158 W/m 3,2 km/h (1 Bft) 97,87 %
26.09.2020 14:14 11,8 C 12,2 C 11,1 C 98 % 999,6 hPa 0,0 l/m 0 min 0 min 152 W/m 0,0 km/h (0 Bft) 97,87 %
26.09.2020 14:16 11,8 C 12,2 C 11,1 C 98 % 999,7 hPa 0,0 l/m 0 min 0 min 141 W/m 19,3 km/h (3 Bft) 97,87 %
26.09.2020 14:18 11,8 C 12,2 C 11,1 C 97 % 999,7 hPa 0,0 l/m 0 min 0 min 134 W/m 9,7 km/h (2 Bft) 95,65 %
26.09.2020 14:20 11,8 C 12,2 C 10,6 C 97 % 999,7 hPa 0,0 l/m 0 min 0 min 134 W/m 16,1 km/h (3 Bft) 93,62 %
26.09.2020 14:22 11,8 C 12,2 C 10,6 C 97 % 999,7 hPa 0,0 l/m 0 min 0 min 134 W/m 9,7 km/h (2 Bft) 94,29 %
26.09.2020 14:24 11,8 C 12,2 C 10,6 C 97 % 999,7 hPa 0,0 l/m 0 min 0 min 131 W/m 19,3 km/h (3 Bft) 95,74 %
26.09.2020 14:26 11,7 C 11,7 C 10,6 C 97 % 999,7 hPa 0,0 l/m 0 min 0 min 136 W/m 12,9 km/h (3 Bft) 93,62 %
26.09.2020 14:28 11,7 C 11,7 C 10,6 C 97 % 999,7 hPa 0,0 l/m 0 min 0 min 147 W/m 3,2 km/h (1 Bft) 93,22 %
26.09.2020 14:30 11,7 C 12,2 C 10,6 C 97 % 999,7 hPa 0,0 l/m 0 min 0 min 156 W/m 6,4 km/h (2 Bft) 95,65 %
26.09.2020 14:32 11,8 C 12,2 C 10,6 C 97 % 999,7 hPa 0,0 l/m 0 min 0 min 156 W/m 12,9 km/h (3 Bft) 93,62 %
26.09.2020 14:34 11,8 C 12,2 C 10,6 C 97 % 999,7 hPa 0,0 l/m 0 min 0 min 155 W/m 6,4 km/h (2 Bft) 94,29 %
26.09.2020 14:36 11,8 C 12,2 C 11,1 C 97 % 999,8 hPa 0,0 l/m 0 min 0 min 158 W/m 6,4 km/h (2 Bft) 94,92 %
26.09.2020 14:38 11,8 C 12,2 C 11,1 C 97 % 999,8 hPa 0,0 l/m 0 min 0 min 164 W/m 6,4 km/h (2 Bft) 97,87 %
26.09.2020 14:40 11,8 C 12,8 C 11,1 C 97 % 999,8 hPa 0,0 l/m 0 min 0 min 176 W/m 6,4 km/h (2 Bft) 100,00 %
26.09.2020 14:42 11,9 C 12,8 C 11,1 C 97 % 999,8 hPa 0,0 l/m 0 min 0 min 170 W/m 0,0 km/h (0 Bft) 97,87 %
26.09.2020 14:44 11,9 C 12,8 C 11,1 C 97 % 999,9 hPa 0,0 l/m 0 min 0 min 145 W/m 9,7 km/h (2 Bft) 98,28 %
26.09.2020 14:46 12,0 C 12,8 C 11,1 C 97 % 999,9 hPa 0,0 l/m 0 min 0 min 120 W/m 6,4 km/h (2 Bft) 97,87 %
26.09.2020 14:48 12,0 C 12,8 C 11,1 C 97 % 999,8 hPa 0,0 l/m 0 min 0 min 132 W/m 6,4 km/h (2 Bft) 97,14 %
26.09.2020 14:50 12,1 C 12,8 C 11,1 C 97 % 999,8 hPa 0,0 l/m 0 min 0 min 137 W/m 3,2 km/h (1 Bft) 96,61 %
26.09.2020 14:52 12,1 C 12,8 C 11,1 C 97 % 999,8 hPa 0,0 l/m 0 min 0 min 115 W/m 0,0 km/h (0 Bft) 97,83 %
26.09.2020 14:54 12,1 C 12,2 C 11,1 C 97 % 999,8 hPa 0,0 l/m 0 min 0 min 118 W/m 0,0 km/h (0 Bft) 97,22 %
26.09.2020 14:56 12,1 C 12,8 C 11,1 C 97 % 999,8 hPa 0,0 l/m 0 min 0 min 126 W/m 6,4 km/h (2 Bft) 97,83 %
26.09.2020 14:58 12,1 C 12,8 C 11,1 C 97 % 999,8 hPa 0,0 l/m 0 min 0 min 149 W/m 6,4 km/h (2 Bft) 98,31 %
26.09.2020 15:00 12,1 C 12,8 C 11,1 C 97 % 999,8 hPa 0,0 l/m 0 min 0 min 176 W/m 6,4 km/h (2 Bft) 97,87 %
26.09.2020 15:02 12,2 C 13,3 C 11,1 C 97 % 999,8 hPa 0,0 l/m 0 min 0 min 196 W/m 0,0 km/h (0 Bft) 100,00 %
26.09.2020 15:04 12,2 C 13,3 C 11,7 C 97 % 999,7 hPa 0,0 l/m 0 min 0 min 210 W/m 0,0 km/h (0 Bft) 97,14 %
26.09.2020 15:06 12,2 C 13,9 C 11,1 C 97 % 999,8 hPa 0,0 l/m 0 min 0 min 214 W/m 0,0 km/h (0 Bft) 100,00 %
26.09.2020 15:08 12,3 C 13,3 C 11,1 C 97 % 999,8 hPa 0,0 l/m 0 min 0 min 196 W/m 3,2 km/h (1 Bft) 100,00 %
26.09.2020 15:10 12,3 C 13,3 C 11,1 C 97 % 999,8 hPa 0,0 l/m 0 min 0 min 183 W/m 0,0 km/h (0 Bft) 100,00 %
26.09.2020 15:12 12,3 C 13,3 C 11,1 C 97 % 999,8 hPa 0,0 l/m 0 min 0 min 171 W/m 3,2 km/h (1 Bft) 95,74 %
26.09.2020 15:14 12,4 C 13,3 C 11,1 C 97 % 999,8 hPa 0,0 l/m 0 min 0 min 158 W/m 0,0 km/h (0 Bft) 100,00 %
26.09.2020 15:16 12,4 C 13,3 C 11,1 C 97 % 999,8 hPa 0,0 l/m 0 min 0 min 122 W/m 6,4 km/h (2 Bft) 100,00 %
26.09.2020 15:18 12,4 C 13,3 C 11,1 C 97 % 999,7 hPa 0,0 l/m 0 min 0 min 111 W/m 0,0 km/h (0 Bft) 100,00 %
26.09.2020 15:20 12,4 C 13,3 C 11,1 C 96 % 999,7 hPa 0,0 l/m 0 min 0 min 142 W/m 6,4 km/h (2 Bft) 100,00 %
26.09.2020 15:22 12,4 C 12,8 C 11,1 C 96 % 999,7 hPa 0,0 l/m 0 min 0 min 155 W/m 12,9 km/h (3 Bft) 97,14 %
26.09.2020 15:24 12,4 C 12,8 C 11,1 C 96 % 999,7 hPa 0,0 l/m 0 min 0 min 149 W/m 9,7 km/h (2 Bft) 100,00 %
26.09.2020 15:26 12,3 C 12,8 C 11,1 C 96 % 999,6 hPa 0,0 l/m 0 min 0 min 140 W/m 6,4 km/h (2 Bft) 100,00 %
26.09.2020 15:28 12,3 C 12,8 C 11,1 C 96 % 999,6 hPa 0,0 l/m 0 min 0 min 136 W/m 9,7 km/h (2 Bft) 98,28 %
26.09.2020 15:30 12,3 C 12,8 C 11,1 C 96 % 999,6 hPa 0,0 l/m 0 min 0 min 136 W/m 9,7 km/h (2 Bft) 97,14 %
26.09.2020 15:32 12,3 C 12,8 C 11,1 C 96 % 999,6 hPa 0,0 l/m 0 min 0 min 139 W/m 6,4 km/h (2 Bft) 96,61 %
26.09.2020 15:34 12,2 C 12,8 C 11,1 C 95 % 999,6 hPa 0,0 l/m 0 min 0 min 143 W/m 3,2 km/h (1 Bft) 97,87 %
26.09.2020 15:36 12,3 C 12,8 C 11,1 C 95 % 999,6 hPa 0,0 l/m 0 min 0 min 151 W/m 3,2 km/h (1 Bft) 97,87 %
26.09.2020 15:38 12,3 C 12,8 C 11,1 C 95 % 999,7 hPa 0,0 l/m 0 min 0 min 164 W/m 12,9 km/h (3 Bft) 97,87 %
26.09.2020 15:40 12,3 C 12,8 C 11,1 C 95 % 999,6 hPa 0,0 l/m 0 min 0 min 171 W/m 3,2 km/h (1 Bft) 97,83 %
26.09.2020 15:42 12,3 C 13,3 C 11,1 C 95 % 999,6 hPa 0,0 l/m 0 min 0 min 163 W/m 6,4 km/h (2 Bft) 97,87 %
26.09.2020 15:44 12,3 C 12,8 C 11,1 C 95 % 999,6 hPa 0,0 l/m 0 min 0 min 137 W/m 3,2 km/h (1 Bft) 97,87 %
26.09.2020 15:46 12,3 C 12,8 C 11,1 C 94 % 999,6 hPa 0,0 l/m 0 min 0 min 127 W/m 3,2 km/h (1 Bft) 97,14 %
26.09.2020 15:48 12,3 C 12,8 C 11,1 C 94 % 999,6 hPa 0,0 l/m 0 min 0 min 120 W/m 6,4 km/h (2 Bft) 97,87 %
26.09.2020 15:50 12,3 C 12,8 C 11,1 C 94 % 999,6 hPa 0,0 l/m 0 min 0 min 110 W/m 3,2 km/h (1 Bft) 97,87 %
26.09.2020 15:52 12,3 C 12,8 C 11,1 C 94 % 999,6 hPa 0,0 l/m 0 min 0 min 100 W/m 3,2 km/h (1 Bft) 97,87 %
26.09.2020 15:54 12,3 C 12,8 C 11,1 C 94 % 999,6 hPa 0,0 l/m 0 min 0 min 100 W/m 0,0 km/h (0 Bft) 96,55 %
26.09.2020 15:56 12,3 C 12,8 C 11,1 C 94 % 999,7 hPa 0,0 l/m 0 min 0 min 97 W/m 12,9 km/h (3 Bft) 100,00 %
26.09.2020 15:58 12,3 C 12,8 C 10,6 C 94 % 999,7 hPa 0,0 l/m 0 min 0 min 93 W/m 0,0 km/h (0 Bft) 94,92 %
26.09.2020 16:00 12,3 C 12,2 C 10,6 C 94 % 999,6 hPa 0,0 l/m 0 min 0 min 90 W/m 16,1 km/h (3 Bft) 100,00 %
26.09.2020 16:02 12,3 C 12,2 C 10,6 C 93 % 999,7 hPa 0,0 l/m 0 min 0 min 86 W/m 6,4 km/h (2 Bft) 96,23 %
26.09.2020 16:04 12,3 C 12,2 C 10,6 C 93 % 999,7 hPa 0,0 l/m 0 min 0 min 81 W/m 0,0 km/h (0 Bft) 95,74 %
26.09.2020 16:06 12,3 C 12,2 C 10,6 C 93 % 999,8 hPa 0,0 l/m 0 min 0 min 77 W/m 6,4 km/h (2 Bft) 97,87 %
26.09.2020 16:08 12,3 C 12,2 C 10,6 C 93 % 999,8 hPa 0,0 l/m 0 min 0 min 78 W/m 3,2 km/h (1 Bft) 97,87 %
26.09.2020 16:10 12,3 C 12,2 C 10,6 C 93 % 999,7 hPa 0,0 l/m 0 min 0 min 84 W/m 6,4 km/h (2 Bft) 97,87 %
26.09.2020 16:12 12,3 C 12,2 C 10,6 C 92 % 999,7 hPa 0,0 l/m 0 min 0 min 90 W/m 0,0 km/h (0 Bft) 97,87 %
26.09.2020 16:14 12,3 C 12,2 C 10,6 C 92 % 999,8 hPa 0,0 l/m 0 min 0 min 91 W/m 0,0 km/h (0 Bft) 100,00 %
26.09.2020 16:16 12,3 C 12,2 C 10,6 C 92 % 999,8 hPa 0,0 l/m 0 min 0 min 86 W/m 6,4 km/h (2 Bft) 97,87 %
26.09.2020 16:18 12,3 C 12,2 C 10,6 C 92 % 999,9 hPa 0,0 l/m 0 min 0 min 83 W/m 3,2 km/h (1 Bft) 97,87 %
26.09.2020 16:20 12,3 C 12,2 C 10,6 C 92 % 999,9 hPa 0,0 l/m 0 min 0 min 76 W/m 12,9 km/h (3 Bft) 97,87 %
26.09.2020 16:22 12,3 C 12,2 C 10,6 C 92 % 999,9 hPa 0,0 l/m 0 min 0 min 63 W/m 0,0 km/h (0 Bft) 100,00 %
26.09.2020 16:24 12,3 C 12,2 C 10,6 C 92 % 999,9 hPa 0,0 l/m 0 min 0 min 52 W/m 0,0 km/h (0 Bft) 100,00 %
26.09.2020 16:26 12,3 C 12,2 C 10,6 C 91 % 999,9 hPa 0,0 l/m 0 min 0 min 49 W/m 0,0 km/h (0 Bft) 97,87 %
26.09.2020 16:28 12,3 C 11,7 C 10,6 C 91 % 999,9 hPa 0,0 l/m 0 min 0 min 49 W/m 0,0 km/h (0 Bft) 100,00 %
26.09.2020 16:30 12,3 C 12,2 C 10,6 C 91 % 1000,0 hPa 0,0 l/m 0 min 0 min 52 W/m 0,0 km/h (0 Bft) 97,87 %
26.09.2020 16:32 12,3 C 12,2 C 10,6 C 91 % 999,9 hPa 0,0 l/m 0 min 0 min 60 W/m 0,0 km/h (0 Bft) 100,00 %
26.09.2020 16:34 12,3 C 12,2 C 10,6 C 91 % 999,9 hPa 0,0 l/m 0 min 0 min 71 W/m 12,9 km/h (3 Bft) 97,83 %
26.09.2020 16:36 12,3 C 12,2 C 10,6 C 91 % 999,9 hPa 0,0 l/m 0 min 0 min 80 W/m 3,2 km/h (1 Bft) 97,87 %
26.09.2020 16:38 12,3 C 12,2 C 10,6 C 91 % 999,9 hPa 0,0 l/m 0 min 0 min 85 W/m 3,2 km/h (1 Bft) 97,87 %
26.09.2020 16:40 12,3 C 12,2 C 10,6 C 91 % 999,9 hPa 0,0 l/m 0 min 0 min 86 W/m 3,2 km/h (1 Bft) 97,87 %
26.09.2020 16:42 12,3 C 12,2 C 10,6 C 91 % 999,9 hPa 0,0 l/m 0 min 0 min 83 W/m 6,4 km/h (2 Bft) 100,00 %
26.09.2020 16:44 12,3 C 12,2 C 10,6 C 91 % 1000,0 hPa 0,0 l/m 0 min 0 min 83 W/m 6,4 km/h (2 Bft) 95,74 %
26.09.2020 16:46 12,3 C 12,2 C 10,6 C 91 % 999,9 hPa 0,0 l/m 0 min 0 min 84 W/m 9,7 km/h (2 Bft) 95,65 %
26.09.2020 16:48 12,3 C 12,2 C 10,6 C 91 % 1000,0 hPa 0,0 l/m 0 min 0 min 91 W/m 3,2 km/h (1 Bft) 97,87 %
26.09.2020 16:50 12,3 C 12,2 C 11,1 C 91 % 1000,0 hPa 0,0 l/m 0 min 0 min 102 W/m 3,2 km/h (1 Bft) 95,74 %
26.09.2020 16:52 12,3 C 12,8 C 11,1 C 91 % 1000,0 hPa 0,0 l/m 0 min 0 min 114 W/m 0,0 km/h (0 Bft) 97,87 %
26.09.2020 16:54 12,3 C 12,8 C 11,1 C 91 % 1000,0 hPa 0,0 l/m 0 min 0 min 122 W/m 0,0 km/h (0 Bft) 93,62 %
26.09.2020 16:56 12,3 C 12,8 C 11,1 C 91 % 1000,0 hPa 0,0 l/m 0 min 0 min 130 W/m 9,7 km/h (2 Bft) 95,74 %
26.09.2020 16:58 12,3 C 12,8 C 11,1 C 91 % 1000,0 hPa 0,0 l/m 0 min 0 min 136 W/m 6,4 km/h (2 Bft) 97,83 %
26.09.2020 17:00 12,4 C 12,8 C 11,1 C 91 % 1000,0 hPa 0,0 l/m 0 min 0 min 139 W/m 9,7 km/h (2 Bft) 97,87 %
26.09.2020 17:02 12,4 C 13,3 C 11,1 C 90 % 1000,0 hPa 0,0 l/m 0 min 0 min 138 W/m 0,0 km/h (0 Bft) 97,87 %
26.09.2020 17:04 12,4 C 13,3 C 11,1 C 90 % 1000,0 hPa 0,0 l/m 0 min 0 min 136 W/m 6,4 km/h (2 Bft) 97,87 %
26.09.2020 17:06 12,4 C 13,3 C 11,1 C 90 % 1000,0 hPa 0,0 l/m 0 min 0 min 130 W/m 9,7 km/h (2 Bft) 93,62 %
26.09.2020 17:08 12,5 C 13,3 C 11,1 C 90 % 1000,0 hPa 0,0 l/m 0 min 0 min 126 W/m 6,4 km/h (2 Bft) 97,87 %
26.09.2020 17:10 12,5 C 13,3 C 11,1 C 90 % 1000,1 hPa 0,0 l/m 0 min 0 min 134 W/m 6,4 km/h (2 Bft) 95,65 %
26.09.2020 17:12 12,6 C 13,3 C 11,1 C 90 % 1000,0 hPa 0,0 l/m 0 min 0 min 132 W/m 3,2 km/h (1 Bft) 95,74 %
26.09.2020 17:14 12,6 C 13,3 C 11,1 C 90 % 1000,0 hPa 0,0 l/m 0 min 0 min 132 W/m 3,2 km/h (1 Bft) 95,74 %
26.09.2020 17:16 12,6 C 13,3 C 11,1 C 90 % 1000,0 hPa 0,0 l/m 0 min 0 min 133 W/m 6,4 km/h (2 Bft) 91,49 %
26.09.2020 17:18 12,6 C 13,3 C 11,1 C 89 % 1000,0 hPa 0,0 l/m 0 min 0 min 130 W/m 6,4 km/h (2 Bft) 95,74 %
26.09.2020 17:20 12,6 C 13,3 C 11,1 C 89 % 1000,0 hPa 0,0 l/m 0 min 0 min 127 W/m 0,0 km/h (0 Bft) 87,23 %
26.09.2020 17:22 12,6 C 13,3 C 11,1 C 89 % 1000,0 hPa 0,0 l/m 0 min 0 min 122 W/m 0,0 km/h (0 Bft) 91,30 %
26.09.2020 17:24 12,7 C 13,3 C 11,1 C 89 % 1000,0 hPa 0,0 l/m 0 min 0 min 116 W/m 0,0 km/h (0 Bft) 93,62 %
26.09.2020 17:26 12,7 C 13,3 C 11,1 C 89 % 1000,0 hPa 0,0 l/m 0 min 0 min 107 W/m 3,2 km/h (1 Bft) 93,62 %
26.09.2020 17:28 12,7 C 13,3 C 11,1 C 89 % 1000,0 hPa 0,0 l/m 0 min 0 min 95 W/m 0,0 km/h (0 Bft) 97,87 %
26.09.2020 17:30 12,7 C 12,8 C 11,1 C 89 % 1000,0 hPa 0,0 l/m 0 min 0 min 88 W/m 0,0 km/h (0 Bft) 97,87 %
26.09.2020 17:32 12,7 C 12,8 C 11,1 C 89 % 1000,0 hPa 0,0 l/m 0 min 0 min 84 W/m 3,2 km/h (1 Bft) 97,83 %
26.09.2020 17:34 12,7 C 12,8 C 11,1 C 89 % 1000,0 hPa 0,0 l/m 0 min 0 min 82 W/m 0,0 km/h (0 Bft) 95,74 %
26.09.2020 17:36 12,8 C 12,8 C 11,1 C 89 % 999,9 hPa 0,0 l/m 0 min 0 min 76 W/m 0,0 km/h (0 Bft) 95,74 %
26.09.2020 17:38 12,8 C 12,8 C 11,1 C 89 % 999,9 hPa 0,0 l/m 0 min 0 min 70 W/m 6,4 km/h (2 Bft) 95,74 %
26.09.2020 17:40 12,8 C 12,8 C 11,1 C 88 % 999,9 hPa 0,0 l/m 0 min 0 min 70 W/m 6,4 km/h (2 Bft) 95,74 %
26.09.2020 17:42 12,8 C 12,8 C 11,1 C 88 % 1000,0 hPa 0,0 l/m 0 min 0 min 75 W/m 6,4 km/h (2 Bft) 97,87 %
26.09.2020 17:44 12,7 C 12,8 C 11,1 C 88 % 999,9 hPa 0,0 l/m 0 min 0 min 77 W/m 0,0 km/h (0 Bft) 97,83 %
26.09.2020 17:46 12,8 C 12,8 C 11,1 C 88 % 999,9 hPa 0,0 l/m 0 min 0 min 68 W/m 0,0 km/h (0 Bft) 97,87 %
26.09.2020 17:48 12,8 C 12,2 C 11,1 C 88 % 999,8 hPa 0,0 l/m 0 min 0 min 58 W/m 0,0 km/h (0 Bft) 95,74 %
26.09.2020 17:50 12,8 C 12,2 C 11,1 C 88 % 999,8 hPa 0,0 l/m 0 min 0 min 52 W/m 0,0 km/h (0 Bft) 97,87 %
26.09.2020 17:52 12,8 C 12,2 C 11,1 C 88 % 999,8 hPa 0,0 l/m 0 min 0 min 48 W/m 16,1 km/h (3 Bft) 95,74 %
26.09.2020 17:54 12,8 C 12,2 C 11,1 C 88 % 999,8 hPa 0,0 l/m 0 min 0 min 45 W/m 0,0 km/h (0 Bft) 97,87 %
26.09.2020 17:56 12,8 C 12,2 C 11,1 C 88 % 999,8 hPa 0,0 l/m 0 min 0 min 46 W/m 6,4 km/h (2 Bft) 97,83 %
26.09.2020 17:58 12,7 C 12,2 C 11,1 C 88 % 999,8 hPa 0,0 l/m 0 min 0 min 47 W/m 0,0 km/h (0 Bft) 97,87 %
26.09.2020 18:00 12,7 C 12,2 C 11,1 C 88 % 999,8 hPa 0,0 l/m 0 min 0 min 43 W/m 3,2 km/h (1 Bft) 97,87 %
26.09.2020 18:02 12,7 C 12,2 C 10,6 C 88 % 999,8 hPa 0,0 l/m 0 min 0 min 38 W/m 0,0 km/h (0 Bft) 97,87 %
26.09.2020 18:04 12,7 C 12,2 C 10,6 C 87 % 999,9 hPa 0,0 l/m 0 min 0 min 36 W/m 6,4 km/h (2 Bft) 97,87 %
26.09.2020 18:08 12,7 C 12,2 C 10,6 C 87 % 999,9 hPa 0,0 l/m 0 min 0 min 33 W/m 3,2 km/h (1 Bft) 98,94 %
26.09.2020 18:10 12,7 C 11,7 C 10,6 C 87 % 999,9 hPa 0,0 l/m 0 min 0 min 33 W/m 0,0 km/h (0 Bft) 100,00 %
26.09.2020 18:12 12,7 C 11,7 C 10,6 C 87 % 999,9 hPa 0,0 l/m 0 min 0 min 33 W/m 0,0 km/h (0 Bft) 100,00 %
26.09.2020 18:14 12,7 C 11,7 C 10,6 C 87 % 999,8 hPa 0,0 l/m 0 min 0 min 31 W/m 0,0 km/h (0 Bft) 100,00 %
26.09.2020 18:16 12,7 C 11,7 C 10,6 C 87 % 999,9 hPa 0,0 l/m 0 min 0 min 28 W/m 0,0 km/h (0 Bft) 97,87 %
26.09.2020 18:18 12,6 C 11,7 C 10,6 C 87 % 999,9 hPa 0,0 l/m 0 min 0 min 25 W/m 3,2 km/h (1 Bft) 97,83 %
26.09.2020 18:20 12,6 C 11,7 C 10,6 C 87 % 999,9 hPa 0,0 l/m 0 min 0 min 25 W/m 0,0 km/h (0 Bft) 95,74 %
26.09.2020 18:22 12,6 C 11,7 C 10,6 C 87 % 999,9 hPa 0,0 l/m 0 min 0 min 23 W/m 0,0 km/h (0 Bft) 95,74 %
26.09.2020 18:24 12,6 C 11,7 C 10,6 C 88 % 999,9 hPa 0,0 l/m 0 min 0 min 20 W/m 0,0 km/h (0 Bft) 97,87 %
26.09.2020 18:26 12,6 C 11,7 C 10,6 C 88 % 999,9 hPa 0,0 l/m 0 min 0 min 19 W/m 3,2 km/h (1 Bft) 97,44 %
26.09.2020 18:28 12,6 C 11,7 C 10,6 C 88 % 999,9 hPa 0,0 l/m 0 min 0 min 18 W/m 0,0 km/h (0 Bft) 97,87 %
26.09.2020 18:30 12,6 C 11,7 C 10,6 C 88 % 999,9 hPa 0,0 l/m 0 min 0 min 17 W/m 0,0 km/h (0 Bft) 97,87 %
26.09.2020 18:32 12,6 C 11,7 C 10,6 C 88 % 1000,0 hPa 0,0 l/m 0 min 0 min 16 W/m 3,2 km/h (1 Bft) 95,74 %
26.09.2020 18:34 12,6 C 11,7 C 10,6 C 88 % 999,9 hPa 0,0 l/m 0 min 0 min 16 W/m 0,0 km/h (0 Bft) 95,65 %
26.09.2020 18:36 12,5 C 11,7 C 10,6 C 88 % 999,9 hPa 0,0 l/m 0 min 0 min 14 W/m 0,0 km/h (0 Bft) 95,74 %
26.09.2020 18:38 12,5 C 11,7 C 10,6 C 88 % 999,9 hPa 0,0 l/m 0 min 0 min 12 W/m 0,0 km/h (0 Bft) 97,87 %
26.09.2020 18:40 12,5 C 11,7 C 10,6 C 88 % 1000,0 hPa 0,0 l/m 0 min 0 min 11 W/m 0,0 km/h (0 Bft) 97,87 %
26.09.2020 18:42 12,5 C 11,1 C 10,6 C 88 % 999,9 hPa 0,0 l/m 0 min 0 min 11 W/m 0,0 km/h (0 Bft) 97,87 %
26.09.2020 18:44 12,4 C 11,1 C 10,6 C 88 % 999,9 hPa 0,0 l/m 0 min 0 min 11 W/m 0,0 km/h (0 Bft) 97,87 %
26.09.2020 18:46 12,4 C 11,1 C 10,6 C 88 % 999,9 hPa 0,0 l/m 0 min 0 min 11 W/m 0,0 km/h (0 Bft) 97,83 %
26.09.2020 18:48 12,4 C 11,1 C 10,6 C 88 % 999,9 hPa 0,0 l/m 0 min 0 min 9 W/m 0,0 km/h (0 Bft) 97,87 %
26.09.2020 18:50 12,4 C 11,1 C 10,0 C 88 % 999,9 hPa 0,0 l/m 0 min 0 min 7 W/m 0,0 km/h (0 Bft) 95,74 %
26.09.2020 18:52 12,4 C 11,1 C 10,0 C 88 % 1000,0 hPa 0,0 l/m 0 min 0 min 7 W/m 0,0 km/h (0 Bft) 97,87 %
26.09.2020 18:54 12,3 C 11,1 C 10,0 C 88 % 1000,0 hPa 0,0 l/m 0 min 0 min 5 W/m 0,0 km/h (0 Bft) 97,87 %
26.09.2020 18:56 12,3 C 11,1 C 10,0 C 88 % 999,9 hPa 0,0 l/m 0 min 0 min 5 W/m 0,0 km/h (0 Bft) 97,87 %
26.09.2020 18:58 12,3 C 11,1 C 10,0 C 88 % 1000,0 hPa 0,0 l/m 0 min 0 min 5 W/m 0,0 km/h (0 Bft) 97,83 %
26.09.2020 19:00 12,3 C 11,1 C 10,0 C 88 % 1000,0 hPa 0,0 l/m 0 min 0 min 5 W/m 0,0 km/h (0 Bft) 97,87 %
26.09.2020 19:02 12,3 C 11,1 C 10,0 C 88 % 1000,0 hPa 0,0 l/m 0 min 0 min 4 W/m 0,0 km/h (0 Bft) 97,87 %
26.09.2020 19:04 12,3 C 11,1 C 10,0 C 88 % 1000,0 hPa 0,0 l/m 0 min 0 min 0 W/m 0,0 km/h (0 Bft) 97,87 %
26.09.2020 19:06 12,3 C 11,1 C 10,0 C 88 % 1000,1 hPa 0,0 l/m 0 min 0 min 0 W/m 0,0 km/h (0 Bft) 95,74 %
26.09.2020 19:08 12,2 C 11,1 C 10,0 C 88 % 1000,1 hPa 0,0 l/m 0 min 0 min 0 W/m 0,0 km/h (0 Bft) 97,87 %
26.09.2020 19:10 12,2 C 11,1 C 10,0 C 88 % 1000,1 hPa 0,0 l/m 0 min 0 min 0 W/m 0,0 km/h (0 Bft) 97,83 %
26.09.2020 19:12 12,2 C 11,1 C 10,0 C 88 % 1000,1 hPa 0,0 l/m 0 min 0 min 0 W/m 0,0 km/h (0 Bft) 97,87 %
26.09.2020 19:14 12,2 C 11,1 C 10,0 C 88 % 1000,1 hPa 0,0 l/m 0 min 0 min 0 W/m 0,0 km/h (0 Bft) 97,87 %
26.09.2020 19:16 12,2 C 11,1 C 10,0 C 88 % 1000,1 hPa 0,0 l/m 0 min 0 min 0 W/m 0,0 km/h (0 Bft) 95,74 %
26.09.2020 19:18 12,2 C 11,1 C 10,0 C 88 % 1000,2 hPa 0,0 l/m 0 min 0 min 0 W/m 0,0 km/h (0 Bft) 97,87 %
26.09.2020 19:20 12,1 C 11,1 C 10,0 C 88 % 1000,2 hPa 0,0 l/m 0 min 0 min 0 W/m 0,0 km/h (0 Bft) 91,49 %
26.09.2020 19:22 12,1 C 10,6 C 10,0 C 88 % 1000,2 hPa 0,0 l/m 0 min 0 min 0 W/m 0,0 km/h (0 Bft) 95,65 %
26.09.2020 19:24 12,1 C 10,6 C 10,0 C 88 % 1000,2 hPa 0,0 l/m 0 min 0 min 0 W/m 0,0 km/h (0 Bft) 91,49 %
26.09.2020 19:26 12,1 C 10,6 C 10,0 C 88 % 1000,3 hPa 0,0 l/m 0 min 0 min 0 W/m 0,0 km/h (0 Bft) 95,74 %
26.09.2020 19:28 12,1 C 10,6 C 10,0 C 88 % 1000,3 hPa 0,0 l/m 0 min 0 min 0 W/m 0,0 km/h (0 Bft) 77,78 %
26.09.2020 19:30 12,1 C 10,6 C 10,0 C 88 % 1000,3 hPa 0,0 l/m 0 min 0 min 0 W/m 0,0 km/h (0 Bft) 95,92 %
26.09.2020 19:32 12,1 C 10,6 C 10,0 C 88 % 1000,3 hPa 0,0 l/m 0 min 0 min 0 W/m 0,0 km/h (0 Bft) 97,87 %
26.09.2020 19:34 12,0 C 10,6 C 10,0 C 88 % 1000,3 hPa 0,0 l/m 0 min 0 min 0 W/m 0,0 km/h (0 Bft) 95,65 %
26.09.2020 19:36 12,0 C 10,6 C 10,0 C 88 % 1000,4 hPa 0,0 l/m 0 min 0 min 0 W/m 0,0 km/h (0 Bft) 97,87 %
26.09.2020 19:38 12,0 C 10,6 C 10,0 C 88 % 1000,3 hPa 0,0 l/m 0 min 0 min 0 W/m 0,0 km/h (0 Bft) 97,87 %
26.09.2020 19:40 11,9 C 10,6 C 10,0 C 88 % 1000,3 hPa 0,0 l/m 0 min 0 min 0 W/m 0,0 km/h (0 Bft) 97,87 %
26.09.2020 19:42 11,9 C 10,6 C 10,0 C 88 % 1000,4 hPa 0,0 l/m 0 min 0 min 0 W/m 0,0 km/h (0 Bft) 95,74 %
26.09.2020 19:44 11,9 C 10,6 C 10,0 C 88 % 1000,4 hPa 0,0 l/m 0 min 0 min 0 W/m 0,0 km/h (0 Bft) 95,74 %
26.09.2020 19:46 11,9 C 10,6 C 10,0 C 88 % 1000,4 hPa 0,0 l/m 0 min 0 min 0 W/m 0,0 km/h (0 Bft) 91,30 %
26.09.2020 19:48 11,9 C 10,6 C 10,0 C 88 % 1000,5 hPa 0,0 l/m 0 min 2 min 0 W/m 0,0 km/h (0 Bft) 97,87 %
26.09.2020 19:50 11,9 C 10,6 C 10,0 C 89 % 1000,5 hPa 0,0 l/m 0 min 2 min 0 W/m 0,0 km/h (0 Bft) 95,74 %
26.09.2020 19:52 11,9 C 10,0 C 10,0 C 89 % 1000,5 hPa 0,0 l/m 0 min 2 min 0 W/m 0,0 km/h (0 Bft) 95,74 %
26.09.2020 19:54 11,8 C 10,0 C 10,0 C 88 % 1000,6 hPa 0,0 l/m 0 min 2 min 0 W/m 0,0 km/h (0 Bft) 97,87 %
26.09.2020 19:56 11,8 C 10,0 C 10,0 C 88 % 1000,5 hPa 0,0 l/m 0 min 2 min 0 W/m 0,0 km/h (0 Bft) 97,83 %
26.09.2020 19:58 11,8 C 10,0 C 9,4 C 88 % 1000,5 hPa 0,0 l/m 0 min 2 min 0 W/m 0,0 km/h (0 Bft) 95,74 %
26.09.2020 20:00 11,8 C 10,0 C 9,4 C 89 % 1000,5 hPa 0,0 l/m 0 min 2 min 0 W/m 0,0 km/h (0 Bft) 95,74 %
26.09.2020 20:02 11,8 C 10,0 C 10,0 C 89 % 1000,6 hPa 0,2 l/m 0 min 2 min 0 W/m 3,2 km/h (1 Bft) 97,87 %
26.09.2020 20:04 11,8 C 9,4 C 9,4 C 89 % 1000,6 hPa 0,0 l/m 0 min 2 min 0 W/m 0,0 km/h (0 Bft) 97,87 %
26.09.2020 20:06 11,8 C 9,4 C 10,0 C 89 % 1000,6 hPa 0,0 l/m 0 min 2 min 0 W/m 0,0 km/h (0 Bft) 95,74 %
26.09.2020 20:08 11,7 C 9,4 C 10,0 C 89 % 1000,6 hPa 0,0 l/m 0 min 2 min 0 W/m 0,0 km/h (0 Bft) 93,48 %
26.09.2020 20:10 11,7 C 9,4 C 10,0 C 89 % 1000,6 hPa 0,0 l/m 0 min 2 min 0 W/m 0,0 km/h (0 Bft) 95,74 %
26.09.2020 20:12 11,7 C 9,4 C 9,4 C 89 % 1000,7 hPa 0,0 l/m 0 min 2 min 0 W/m 0,0 km/h (0 Bft) 97,87 %
26.09.2020 20:14 11,7 C 9,4 C 9,4 C 89 % 1000,7 hPa 0,0 l/m 0 min 2 min 0 W/m 0,0 km/h (0 Bft) 97,87 %
26.09.2020 20:16 11,7 C 9,4 C 9,4 C 90 % 1000,7 hPa 0,0 l/m 0 min 2 min 0 W/m 0,0 km/h (0 Bft) 97,87 %
26.09.2020 20:18 11,7 C 9,4 C 9,4 C 90 % 1000,7 hPa 0,2 l/m 0 min 2 min 0 W/m 0,0 km/h (0 Bft) 97,87 %
26.09.2020 20:20 11,7 C 9,4 C 9,4 C 90 % 1000,7 hPa 0,0 l/m 0 min 2 min 0 W/m 0,0 km/h (0 Bft) 95,65 %
26.09.2020 20:22 11,7 C 9,4 C 9,4 C 90 % 1000,6 hPa 0,0 l/m 0 min 2 min 0 W/m 0,0 km/h (0 Bft) 97,87 %
26.09.2020 20:24 11,7 C 9,4 C 9,4 C 90 % 1000,7 hPa 0,2 l/m 0 min 2 min 0 W/m 0,0 km/h (0 Bft) 97,87 %
26.09.2020 20:26 11,7 C 9,4 C 9,4 C 90 % 1000,7 hPa 0,0 l/m 0 min 2 min 0 W/m 0,0 km/h (0 Bft) 97,87 %
26.09.2020 20:28 11,6 C 9,4 C 9,4 C 90 % 1000,7 hPa 0,0 l/m 0 min 2 min 0 W/m 0,0 km/h (0 Bft) 55,32 %
26.09.2020 20:30 11,6 C 9,4 C 10,0 C 90 % 1000,7 hPa 0,0 l/m 0 min 2 min 0 W/m 0,0 km/h (0 Bft) 95,74 %
26.09.2020 20:32 11,6 C 9,4 C 10,0 C 91 % 1000,7 hPa 0,0 l/m 0 min 2 min 0 W/m 0,0 km/h (0 Bft) 97,83 %
26.09.2020 20:34 11,6 C 9,4 C 10,0 C 91 % 1000,7 hPa 0,2 l/m 0 min 2 min 0 W/m 0,0 km/h (0 Bft) 95,74 %
26.09.2020 20:36 11,6 C 9,4 C 9,4 C 91 % 1000,7 hPa 0,0 l/m 0 min 2 min 0 W/m 0,0 km/h (0 Bft) 97,87 %
26.09.2020 20:38 11,6 C 9,4 C 9,4 C 91 % 1000,7 hPa 0,0 l/m 0 min 2 min 0 W/m 0,0 km/h (0 Bft) 97,87 %
26.09.2020 20:40 11,6 C 9,4 C 9,4 C 91 % 1000,7 hPa 0,2 l/m 0 min 2 min 0 W/m 3,2 km/h (1 Bft) 97,87 %
26.09.2020 20:42 11,5 C 9,4 C 9,4 C 91 % 1000,7 hPa 0,0 l/m 0 min 2 min 0 W/m 0,0 km/h (0 Bft) 97,83 %
26.09.2020 20:44 11,5 C 9,4 C 9,4 C 91 % 1000,7 hPa 0,0 l/m 0 min 2 min 0 W/m 0,0 km/h (0 Bft) 97,87 %
26.09.2020 20:46 11,4 C 9,4 C 9,4 C 91 % 1000,7 hPa 0,2 l/m 0 min 2 min 0 W/m 0,0 km/h (0 Bft) 97,87 %
26.09.2020 20:48 11,4 C 9,4 C 9,4 C 91 % 1000,7 hPa 0,2 l/m 0 min 2 min 0 W/m 0,0 km/h (0 Bft) 100,00 %
26.09.2020 20:50 11,4 C 9,4 C 9,4 C 92 % 1000,7 hPa 0,0 l/m 0 min 2 min 0 W/m 0,0 km/h (0 Bft) 100,00 %
26.09.2020 20:52 11,4 C 9,4 C 9,4 C 92 % 1000,7 hPa 0,0 l/m 0 min 2 min 0 W/m 0,0 km/h (0 Bft) 100,00 %
26.09.2020 20:54 11,4 C 9,4 C 9,4 C 92 % 1000,7 hPa 0,2 l/m 0 min 2 min 0 W/m 0,0 km/h (0 Bft) 100,00 %
26.09.2020 20:56 11,3 C 9,4 C 9,4 C 92 % 1000,6 hPa 0,2 l/m 0 min 2 min 0 W/m 0,0 km/h (0 Bft) 100,00 %
26.09.2020 20:58 11,3 C 9,4 C 9,4 C 92 % 1000,6 hPa 0,2 l/m 0 min 2 min 0 W/m 0,0 km/h (0 Bft) 100,00 %
26.09.2020 21:00 11,3 C 9,4 C 9,4 C 92 % 1000,6 hPa 0,2 l/m 0 min 2 min 0 W/m 0,0 km/h (0 Bft) 100,00 %
26.09.2020 21:02 11,3 C 9,4 C 9,4 C 92 % 1000,5 hPa 0,0 l/m 0 min 2 min 0 W/m 0,0 km/h (0 Bft) 100,00 %
26.09.2020 21:04 11,2 C 9,4 C 9,4 C 92 % 1000,5 hPa 0,2 l/m 0 min 2 min 0 W/m 0,0 km/h (0 Bft) 100,00 %
26.09.2020 21:06 11,2 C 9,4 C 9,4 C 92 % 1000,5 hPa 0,2 l/m 0 min 2 min 0 W/m 0,0 km/h (0 Bft) 100,00 %
26.09.2020 21:08 11,2 C 9,4 C 9,4 C 92 % 1000,4 hPa 0,2 l/m 0 min 2 min 0 W/m 0,0 km/h (0 Bft) 100,00 %
26.09.2020 21:10 11,2 C 9,4 C 9,4 C 93 % 1000,4 hPa 0,2 l/m 0 min 2 min 0 W/m 0,0 km/h (0 Bft) 100,00 %
26.09.2020 21:12 11,2 C 8,9 C 9,4 C 93 % 1000,4 hPa 0,0 l/m 0 min 2 min 0 W/m 0,0 km/h (0 Bft) 100,00 %
26.09.2020 21:14 11,1 C 8,9 C 9,4 C 93 % 1000,4 hPa 0,2 l/m 0 min 2 min 0 W/m 0,0 km/h (0 Bft) 100,00 %
26.09.2020 21:16 11,1 C 9,4 C 9,4 C 93 % 1000,3 hPa 0,2 l/m 0 min 2 min 0 W/m 0,0 km/h (0 Bft) 100,00 %
26.09.2020 21:18 11,1 C 9,4 C 9,4 C 93 % 1000,2 hPa 0,0 l/m 0 min 2 min 0 W/m 0,0 km/h (0 Bft) 100,00 %
26.09.2020 21:20 11,1 C 9,4 C 9,4 C 93 % 1000,2 hPa 0,2 l/m 0 min 2 min 0 W/m 0,0 km/h (0 Bft) 100,00 %
26.09.2020 21:22 11,0 C 9,4 C 9,4 C 93 % 1000,2 hPa 0,0 l/m 0 min 2 min 0 W/m 0,0 km/h (0 Bft) 100,00 %
26.09.2020 21:24 11,0 C 9,4 C 9,4 C 93 % 1000,1 hPa 0,2 l/m 0 min 2 min 0 W/m 0,0 km/h (0 Bft) 100,00 %
26.09.2020 21:26 11,0 C 9,4 C 9,4 C 93 % 1000,1 hPa 0,0 l/m 0 min 2 min 0 W/m 0,0 km/h (0 Bft) 95,74 %
26.09.2020 21:28 11,0 C 9,4 C 9,4 C 93 % 1000,1 hPa 0,2 l/m 0 min 2 min 0 W/m 0,0 km/h (0 Bft) 100,00 %
26.09.2020 21:30 11,0 C 9,4 C 9,4 C 93 % 1000,0 hPa 0,0 l/m 0 min 2 min 0 W/m 6,4 km/h (2 Bft) 100,00 %
26.09.2020 21:32 10,9 C 9,4 C 9,4 C 93 % 1000,0 hPa 0,2 l/m 0 min 2 min 0 W/m 3,2 km/h (1 Bft) 97,87 %
26.09.2020 21:34 10,9 C 9,4 C 9,4 C 94 % 1000,0 hPa 0,0 l/m 0 min 2 min 0 W/m 0,0 km/h (0 Bft) 100,00 %
26.09.2020 21:36 10,9 C 9,4 C 9,4 C 94 % 999,9 hPa 0,2 l/m 0 min 2 min 0 W/m 0,0 km/h (0 Bft) 100,00 %
26.09.2020 21:38 10,9 C 9,4 C 9,4 C 94 % 999,8 hPa 0,0 l/m 0 min 2 min 0 W/m 0,0 km/h (0 Bft) 95,74 %
26.09.2020 21:40 10,9 C 9,4 C 9,4 C 94 % 999,7 hPa 0,2 l/m 0 min 2 min 0 W/m 0,0 km/h (0 Bft) 100,00 %
26.09.2020 21:42 10,9 C 9,4 C 9,4 C 94 % 999,7 hPa 0,0 l/m 0 min 2 min 0 W/m 0,0 km/h (0 Bft) 100,00 %
26.09.2020 21:44 10,9 C 9,4 C 9,4 C 94 % 999,7 hPa 0,0 l/m 0 min 2 min 0 W/m 0,0 km/h (0 Bft) 100,00 %
26.09.2020 21:46 10,9 C 9,4 C 9,4 C 94 % 999,7 hPa 0,2 l/m 0 min 2 min 0 W/m 0,0 km/h (0 Bft) 100,00 %
26.09.2020 21:48 10,8 C 9,4 C 9,4 C 94 % 999,6 hPa 0,0 l/m 0 min 2 min 0 W/m 0,0 km/h (0 Bft) 100,00 %
26.09.2020 21:50 10,8 C 9,4 C 9,4 C 94 % 999,5 hPa 0,2 l/m 0 min 2 min 0 W/m 0,0 km/h (0 Bft) 100,00 %
26.09.2020 21:52 10,8 C 9,4 C 9,4 C 94 % 999,4 hPa 0,0 l/m 0 min 2 min 0 W/m 9,7 km/h (2 Bft) 97,83 %
26.09.2020 21:54 10,8 C 9,4 C 9,4 C 95 % 999,3 hPa 0,0 l/m 0 min 2 min 0 W/m 6,4 km/h (2 Bft) 97,87 %
26.09.2020 21:56 10,8 C 9,4 C 9,4 C 95 % 999,2 hPa 0,2 l/m 0 min 2 min 0 W/m 3,2 km/h (1 Bft) 100,00 %
26.09.2020 21:58 10,7 C 9,4 C 9,4 C 95 % 999,1 hPa 0,0 l/m 0 min 2 min 0 W/m 6,4 km/h (2 Bft) 97,87 %
26.09.2020 22:00 10,7 C 8,9 C 9,4 C 95 % 998,9 hPa 0,0 l/m 0 min 2 min 0 W/m 9,7 km/h (2 Bft) 97,87 %
26.09.2020 22:02 10,7 C 9,4 C 8,9 C 95 % 998,8 hPa 0,2 l/m 0 min 2 min 0 W/m 9,7 km/h (2 Bft) 91,49 %
26.09.2020 22:04 10,7 C 9,4 C 8,9 C 95 % 998,8 hPa 0,0 l/m 0 min 2 min 0 W/m 3,2 km/h (1 Bft) 97,83 %
26.09.2020 22:06 10,6 C 9,4 C 8,9 C 95 % 998,8 hPa 0,0 l/m 0 min 2 min 0 W/m 9,7 km/h (2 Bft) 95,74 %
26.09.2020 22:08 10,6 C 8,9 C 8,9 C 95 % 998,6 hPa 0,0 l/m 0 min 2 min 0 W/m 12,9 km/h (3 Bft) 97,87 %
26.09.2020 22:10 10,6 C 8,9 C 8,9 C 95 % 998,6 hPa 0,0 l/m 0 min 2 min 0 W/m 6,4 km/h (2 Bft) 93,62 %
26.09.2020 22:12 10,6 C 9,4 C 8,9 C 95 % 998,5 hPa 0,0 l/m 0 min 2 min 0 W/m 9,7 km/h (2 Bft) 95,74 %
26.09.2020 22:14 10,6 C 9,4 C 8,9 C 95 % 998,5 hPa 0,2 l/m 0 min 2 min 0 W/m 6,4 km/h (2 Bft) 95,74 %
26.09.2020 22:16 10,6 C 9,4 C 8,9 C 96 % 998,6 hPa 0,0 l/m 0 min 0 min 0 W/m 12,9 km/h (3 Bft) 95,65 %
26.09.2020 22:18 10,6 C 9,4 C 8,9 C 96 % 998,7 hPa 0,0 l/m 0 min 0 min 0 W/m 0,0 km/h (0 Bft) 95,74 %
26.09.2020 22:20 10,5 C 9,4 C 8,9 C 96 % 998,7 hPa 0,0 l/m 0 min 2 min 0 W/m 3,2 km/h (1 Bft) 95,74 %
26.09.2020 22:22 10,5 C 8,9 C 8,9 C 96 % 998,6 hPa 0,0 l/m 0 min 2 min 0 W/m 9,7 km/h (2 Bft) 93,62 %
26.09.2020 22:24 10,5 C 8,9 C 8,9 C 96 % 998,6 hPa 0,0 l/m 0 min 2 min 0 W/m 0,0 km/h (0 Bft) 95,74 %
26.09.2020 22:26 10,5 C 8,9 C 8,9 C 96 % 998,6 hPa 0,2 l/m 0 min 2 min 0 W/m 0,0 km/h (0 Bft) 93,62 %
26.09.2020 22:28 10,4 C 8,9 C 8,9 C 96 % 998,7 hPa 0,0 l/m 0 min 2 min 0 W/m 6,4 km/h (2 Bft) 95,65 %
26.09.2020 22:30 10,4 C 8,9 C 8,9 C 96 % 998,8 hPa 0,0 l/m 0 min 2 min 0 W/m 3,2 km/h (1 Bft) 93,62 %
26.09.2020 22:32 10,4 C 8,9 C 8,9 C 96 % 998,7 hPa 0,2 l/m 0 min 2 min 0 W/m 0,0 km/h (0 Bft) 93,62 %
26.09.2020 22:34 10,4 C 8,9 C 8,9 C 96 % 998,7 hPa 0,2 l/m 0 min 2 min 0 W/m 0,0 km/h (0 Bft) 95,74 %
26.09.2020 22:36 10,4 C 8,9 C 8,9 C 96 % 998,5 hPa 0,0 l/m 0 min 2 min 0 W/m 0,0 km/h (0 Bft) 93,62 %
26.09.2020 22:38 10,4 C 8,9 C 8,9 C 96 % 998,4 hPa 0,4 l/m 0 min 2 min 0 W/m 0,0 km/h (0 Bft) 93,62 %
26.09.2020 22:40 10,3 C 8,9 C 8,9 C 96 % 998,4 hPa 0,0 l/m 0 min 2 min 0 W/m 9,7 km/h (2 Bft) 95,65 %
26.09.2020 22:42 10,3 C 8,9 C 8,9 C 96 % 998,4 hPa 0,2 l/m 0 min 2 min 0 W/m 6,4 km/h (2 Bft) 93,62 %
26.09.2020 22:44 10,3 C 8,9 C 8,9 C 96 % 998,4 hPa 0,2 l/m 0 min 2 min 0 W/m 6,4 km/h (2 Bft) 91,49 %
26.09.2020 22:46 10,3 C 8,9 C 8,9 C 96 % 998,4 hPa 0,0 l/m 0 min 2 min 0 W/m 0,0 km/h (0 Bft) 91,49 %
26.09.2020 22:48 10,3 C 8,9 C 8,9 C 96 % 998,4 hPa 0,2 l/m 0 min 2 min 0 W/m 6,4 km/h (2 Bft) 93,62 %
26.09.2020 22:50 10,3 C 8,9 C 8,9 C 96 % 998,3 hPa 0,2 l/m 0 min 2 min 0 W/m 9,7 km/h (2 Bft) 93,62 %
26.09.2020 22:52 10,3 C 8,9 C 8,9 C 97 % 998,3 hPa 0,4 l/m 0 min 2 min 0 W/m 0,0 km/h (0 Bft) 93,48 %
26.09.2020 22:54 10,3 C 8,9 C 8,9 C 97 % 998,1 hPa 0,2 l/m 0 min 2 min 0 W/m 6,4 km/h (2 Bft) 91,49 %
26.09.2020 22:56 10,3 C 8,9 C 8,9 C 97 % 998,1 hPa 0,0 l/m 0 min 2 min 0 W/m 16,1 km/h (3 Bft) 91,49 %
26.09.2020 22:58 10,3 C 8,9 C 8,9 C 97 % 998,1 hPa 0,2 l/m 0 min 2 min 0 W/m 9,7 km/h (2 Bft) 93,62 %
26.09.2020 23:00 10,3 C 8,9 C 8,9 C 97 % 998,1 hPa 0,0 l/m 0 min 2 min 0 W/m 9,7 km/h (2 Bft) 97,87 %
26.09.2020 23:02 10,3 C 8,9 C 8,9 C 97 % 998,0 hPa 0,0 l/m 0 min 2 min 0 W/m 6,4 km/h (2 Bft) 97,83 %
26.09.2020 23:04 10,3 C 8,9 C 8,9 C 97 % 997,9 hPa 0,2 l/m 0 min 2 min 0 W/m 9,7 km/h (2 Bft) 97,87 %
26.09.2020 23:06 10,3 C 9,4 C 8,9 C 97 % 997,8 hPa 0,2 l/m 0 min 2 min 0 W/m 3,2 km/h (1 Bft) 97,87 %
26.09.2020 23:08 10,3 C 9,4 C 8,9 C 97 % 997,8 hPa 0,0 l/m 0 min 2 min 0 W/m 6,4 km/h (2 Bft) 95,74 %
26.09.2020 23:10 10,3 C 9,4 C 8,9 C 97 % 997,9 hPa 0,2 l/m 0 min 2 min 0 W/m 3,2 km/h (1 Bft) 97,87 %
26.09.2020 23:12 10,3 C 9,4 C 8,9 C 97 % 997,8 hPa 0,2 l/m 0 min 2 min 0 W/m 6,4 km/h (2 Bft) 97,87 %
26.09.2020 23:14 10,3 C 9,4 C 9,4 C 97 % 997,9 hPa 0,2 l/m 0 min 2 min 0 W/m 3,2 km/h (1 Bft) 97,83 %
26.09.2020 23:16 10,3 C 9,4 C 9,4 C 97 % 997,9 hPa 0,0 l/m 0 min 2 min 0 W/m 0,0 km/h (0 Bft) 97,87 %
26.09.2020 23:18 10,3 C 9,4 C 9,4 C 97 % 997,9 hPa 0,2 l/m 0 min 2 min 0 W/m 0,0 km/h (0 Bft) 93,62 %
26.09.2020 23:20 10,3 C 9,4 C 9,4 C 97 % 998,0 hPa 0,4 l/m 0 min 2 min 0 W/m 0,0 km/h (0 Bft) 95,74 %
26.09.2020 23:22 10,3 C 9,4 C 9,4 C 97 % 997,9 hPa 0,4 l/m 0 min 2 min 0 W/m 0,0 km/h (0 Bft) 97,87 %
26.09.2020 23:24 10,3 C 9,4 C 9,4 C 97 % 997,9 hPa 0,2 l/m 0 min 2 min 0 W/m 9,7 km/h (2 Bft) 97,87 %
26.09.2020 23:26 10,3 C 9,4 C 9,4 C 97 % 997,7 hPa 0,2 l/m 0 min 2 min 0 W/m 0,0 km/h (0 Bft) 97,83 %
26.09.2020 23:28 10,3 C 9,4 C 9,4 C 97 % 997,5 hPa 0,4 l/m 0 min 2 min 0 W/m 12,9 km/h (3 Bft) 97,87 %
26.09.2020 23:30 10,4 C 9,4 C 9,4 C 97 % 997,7 hPa 0,2 l/m 0 min 2 min 0 W/m 6,4 km/h (2 Bft) 97,87 %
26.09.2020 23:32 10,4 C 9,4 C 9,4 C 97 % 998,0 hPa 0,2 l/m 0 min 2 min 0 W/m 0,0 km/h (0 Bft) 100,00 %
26.09.2020 23:34 10,4 C 9,4 C 9,4 C 98 % 997,9 hPa 0,2 l/m 0 min 2 min 0 W/m 3,2 km/h (1 Bft) 100,00 %
26.09.2020 23:36 10,4 C 9,4 C 9,4 C 98 % 997,9 hPa 0,2 l/m 0 min 2 min 0 W/m 6,4 km/h (2 Bft) 97,87 %
26.09.2020 23:38 10,4 C 9,4 C 9,4 C 98 % 997,8 hPa 0,2 l/m 0 min 2 min 0 W/m 0,0 km/h (0 Bft) 100,00 %
26.09.2020 23:40 10,4 C 9,4 C 9,4 C 98 % 997,7 hPa 0,4 l/m 0 min 2 min 0 W/m 3,2 km/h (1 Bft) 97,87 %
26.09.2020 23:42 10,4 C 9,4 C 9,4 C 98 % 997,6 hPa 0,2 l/m 0 min 2 min 0 W/m 0,0 km/h (0 Bft) 97,87 %
26.09.2020 23:44 10,4 C 9,4 C 9,4 C 98 % 997,6 hPa 0,6 l/m 0 min 2 min 0 W/m 0,0 km/h (0 Bft) 100,00 %
26.09.2020 23:46 10,4 C 9,4 C 9,4 C 98 % 997,5 hPa 0,4 l/m 0 min 2 min 0 W/m 3,2 km/h (1 Bft) 100,00 %
26.09.2020 23:48 10,4 C 9,4 C 9,4 C 98 % 997,6 hPa 0,2 l/m 0 min 2 min 0 W/m 3,2 km/h (1 Bft) 100,00 %
26.09.2020 23:50 10,5 C 9,4 C 9,4 C 98 % 997,5 hPa 0,4 l/m 0 min 2 min 0 W/m 0,0 km/h (0 Bft) 100,00 %
26.09.2020 23:52 10,5 C 9,4 C 9,4 C 98 % 997,4 hPa 0,0 l/m 0 min 2 min 0 W/m 0,0 km/h (0 Bft) 100,00 %
26.09.2020 23:54 10,5 C 9,4 C 9,4 C 98 % 997,5 hPa 0,2 l/m 0 min 2 min 0 W/m 0,0 km/h (0 Bft) 100,00 %
26.09.2020 23:56 10,5 C 9,4 C 9,4 C 98 % 997,4 hPa 0,2 l/m 0 min 2 min 0 W/m 0,0 km/h (0 Bft) 100,00 %
26.09.2020 23:58 10,5 C 9,4 C 9,4 C 98 % 997,5 hPa 0,2 l/m 0 min 2 min 0 W/m 0,0 km/h (0 Bft) 100,00 %
_ Min-Zeit 02:58 00:00 01:36 18:04 05:32 - - - - 04:30 11:44
Minimum _ 9,6 C 8,3 C 8,3 C 87 % 992,9 hPa - - - - 0,0 km/h (0 Bft) 53,49 %
_ Max-Zeit 17:36 15:06 10:04 10:00 20:12 23:44 10:00 00:08 10:04 02:40 00:00
Maximum _ 12,8 C 13,9 C 11,7 C 100 % 1000,7 hPa 0,6 l/m 2 min 4 min 298 W/m 48,3 km/h
S-SO (6 Bft)
100,00 %
Durchschnitt _ 11,0 C 10,2 C 9,7 C 96 % 997,1 hPa #19,0 l/m #10 min. #6:44 h 103 W/m 7,5 km/h (2 Bft) 97,31 %
© 2020 W. Hausmann